Wetterdaten: Dienstag, 08.04.2014
Datum Zeit Temp. Aussen +5cm Feuchte Auss Luftdruck Regen Sonnenschein Regendauer UV Solar Windben
08.04.2014 00:00 13,7 C 12,2 C 96 % 1008,5 hPa 0,0 l/m 0 min 0 min 0,0 UV-I 0 W/m 0,0 km/h (0 Bft)
08.04.2014 00:02 13,8 C 12,2 C 96 % 1008,7 hPa 0,0 l/m 0 min 0 min 0,0 UV-I 0 W/m 0,0 km/h (0 Bft)
08.04.2014 00:06 13,7 C 12,2 C 96 % 1008,6 hPa 0,0 l/m 0 min 0 min 0,0 UV-I 0 W/m 0,0 km/h (0 Bft)
08.04.2014 00:08 13,7 C 12,2 C 96 % 1008,6 hPa 0,0 l/m 0 min 0 min 0,0 UV-I 0 W/m 0,0 km/h (0 Bft)
08.04.2014 00:10 13,7 C 12,2 C 96 % 1008,7 hPa 0,0 l/m 0 min 0 min 0,0 UV-I 0 W/m 0,0 km/h (0 Bft)
08.04.2014 00:12 13,7 C 12,2 C 96 % 1008,6 hPa 0,0 l/m 0 min 0 min 0,0 UV-I 0 W/m 0,0 km/h (0 Bft)
08.04.2014 00:14 13,8 C 12,2 C 96 % 1008,6 hPa 0,0 l/m 0 min 0 min 0,0 UV-I 0 W/m 0,0 km/h (0 Bft)
08.04.2014 00:16 13,8 C 12,2 C 96 % 1008,6 hPa 0,0 l/m 0 min 0 min 0,0 UV-I 0 W/m 0,0 km/h (0 Bft)
08.04.2014 00:18 13,8 C 12,2 C 96 % 1008,7 hPa 0,0 l/m 0 min 0 min 0,0 UV-I 0 W/m 0,0 km/h (0 Bft)
08.04.2014 00:20 13,8 C 12,2 C 96 % 1008,8 hPa 0,0 l/m 0 min 0 min 0,0 UV-I 0 W/m 0,0 km/h (0 Bft)
08.04.2014 00:22 13,8 C 12,2 C 96 % 1008,9 hPa 0,0 l/m 0 min 0 min 0,0 UV-I 0 W/m 0,0 km/h (0 Bft)
08.04.2014 00:24 13,8 C 12,2 C 96 % 1008,9 hPa 0,0 l/m 0 min 2 min 0,0 UV-I 0 W/m 2,6 km/h (1 Bft)
08.04.2014 00:26 13,8 C 12,2 C 96 % 1008,8 hPa 0,0 l/m 0 min 0 min 0,0 UV-I 0 W/m 7,7 km/h (2 Bft)
08.04.2014 00:28 13,8 C 12,2 C 96 % 1008,8 hPa 0,0 l/m 0 min 0 min 0,0 UV-I 0 W/m 5,1 km/h (1 Bft)
08.04.2014 00:30 13,8 C 12,2 C 96 % 1008,6 hPa 0,0 l/m 0 min 0 min 0,0 UV-I 0 W/m 10,3 km/h (2 Bft)
08.04.2014 00:32 13,8 C 12,2 C 96 % 1008,7 hPa 0,0 l/m 0 min 0 min 0,0 UV-I 0 W/m 0,0 km/h (0 Bft)
08.04.2014 00:34 13,8 C 12,2 C 96 % 1008,7 hPa 0,0 l/m 0 min 0 min 0,0 UV-I 0 W/m 2,6 km/h (1 Bft)
08.04.2014 00:36 13,8 C 12,2 C 97 % 1008,7 hPa 0,0 l/m 0 min 0 min 0,0 UV-I 0 W/m 0,0 km/h (0 Bft)
08.04.2014 00:38 13,8 C 12,2 C 97 % 1008,6 hPa 0,0 l/m 0 min 0 min 0,0 UV-I 0 W/m 7,7 km/h (2 Bft)
08.04.2014 00:40 13,8 C 12,2 C 97 % 1008,7 hPa 0,0 l/m 0 min 2 min 0,0 UV-I 0 W/m 0,0 km/h (0 Bft)
08.04.2014 00:42 13,8 C 12,2 C 97 % 1008,6 hPa 0,0 l/m 0 min 2 min 0,0 UV-I 0 W/m 2,6 km/h (1 Bft)
08.04.2014 00:44 13,8 C 12,2 C 97 % 1008,8 hPa 0,0 l/m 0 min 0 min 0,0 UV-I 0 W/m 7,7 km/h (2 Bft)
08.04.2014 00:46 13,8 C 12,2 C 97 % 1008,9 hPa 0,0 l/m 0 min 0 min 0,0 UV-I 0 W/m 7,7 km/h (2 Bft)
08.04.2014 00:48 13,8 C 12,2 C 97 % 1008,8 hPa 0,0 l/m 0 min 2 min 0,0 UV-I 0 W/m 7,7 km/h (2 Bft)
08.04.2014 00:50 13,8 C 12,2 C 97 % 1008,8 hPa 0,2 l/m 0 min 2 min 0,0 UV-I 0 W/m 10,3 km/h (2 Bft)
08.04.2014 00:52 13,8 C 12,2 C 97 % 1008,9 hPa 0,0 l/m 0 min 2 min 0,0 UV-I 0 W/m 15,4 km/h (3 Bft)
08.04.2014 00:54 13,8 C 12,2 C 97 % 1008,9 hPa 0,0 l/m 0 min 2 min 0,0 UV-I 0 W/m 10,3 km/h (2 Bft)
08.04.2014 00:56 13,8 C 12,2 C 97 % 1008,8 hPa 0,0 l/m 0 min 0 min 0,0 UV-I 0 W/m 5,1 km/h (1 Bft)
08.04.2014 00:58 13,8 C 12,2 C 97 % 1008,8 hPa 0,0 l/m 0 min 0 min 0,0 UV-I 0 W/m 12,9 km/h (3 Bft)
08.04.2014 01:00 13,7 C 12,2 C 97 % 1008,8 hPa 0,0 l/m 0 min 0 min 0,0 UV-I 0 W/m 2,6 km/h (1 Bft)
08.04.2014 01:04 13,7 C 12,2 C 97 % 1008,8 hPa 0,0 l/m 0 min 0 min 0,0 UV-I 0 W/m 10,3 km/h (2 Bft)
08.04.2014 01:06 13,7 C 12,2 C 97 % 1008,7 hPa 0,0 l/m 0 min 0 min 0,0 UV-I 0 W/m 12,9 km/h (3 Bft)
08.04.2014 01:08 13,6 C 12,2 C 97 % 1008,6 hPa 0,0 l/m 0 min 0 min 0,0 UV-I 0 W/m 10,3 km/h (2 Bft)
08.04.2014 01:10 13,6 C 12,2 C 97 % 1008,6 hPa 0,0 l/m 0 min 0 min 0,0 UV-I 0 W/m 5,1 km/h (1 Bft)
08.04.2014 01:12 13,6 C 12,2 C 97 % 1008,6 hPa 0,0 l/m 0 min 0 min 0,0 UV-I 0 W/m 0,0 km/h (0 Bft)
08.04.2014 01:14 13,5 C 11,7 C 97 % 1008,6 hPa 0,0 l/m 0 min 0 min 0,0 UV-I 0 W/m 12,9 km/h (3 Bft)
08.04.2014 01:16 13,5 C 11,7 C 97 % 1008,6 hPa 0,0 l/m 0 min 0 min 0,0 UV-I 0 W/m 12,9 km/h (3 Bft)
08.04.2014 01:18 13,5 C 11,7 C 97 % 1008,5 hPa 0,0 l/m 0 min 0 min 0,0 UV-I 0 W/m 7,7 km/h (2 Bft)
08.04.2014 01:20 13,4 C 11,7 C 97 % 1008,6 hPa 0,0 l/m 0 min 0 min 0,0 UV-I 0 W/m 15,4 km/h (3 Bft)
08.04.2014 01:22 13,4 C 11,7 C 97 % 1008,5 hPa 0,0 l/m 0 min 0 min 0,0 UV-I 0 W/m 0,0 km/h (0 Bft)
08.04.2014 01:24 13,4 C 11,7 C 97 % 1008,5 hPa 0,0 l/m 0 min 0 min 0,0 UV-I 0 W/m 7,7 km/h (2 Bft)
08.04.2014 01:26 13,3 C 11,7 C 97 % 1008,4 hPa 0,0 l/m 0 min 0 min 0,0 UV-I 0 W/m 7,7 km/h (2 Bft)
08.04.2014 01:28 13,3 C 11,7 C 97 % 1008,4 hPa 0,0 l/m 0 min 0 min 0,0 UV-I 0 W/m 0,0 km/h (0 Bft)
08.04.2014 01:30 13,3 C 11,7 C 97 % 1008,4 hPa 0,0 l/m 0 min 0 min 0,0 UV-I 0 W/m 5,1 km/h (1 Bft)
08.04.2014 01:32 13,3 C 11,7 C 97 % 1008,4 hPa 0,0 l/m 0 min 0 min 0,0 UV-I 0 W/m 2,6 km/h (1 Bft)
08.04.2014 01:34 13,3 C 11,7 C 97 % 1008,4 hPa 0,0 l/m 0 min 0 min 0,0 UV-I 0 W/m 2,6 km/h (1 Bft)
08.04.2014 01:36 13,3 C 11,7 C 97 % 1008,4 hPa 0,0 l/m 0 min 0 min 0,0 UV-I 0 W/m 10,3 km/h (2 Bft)
08.04.2014 01:38 13,2 C 11,7 C 97 % 1008,4 hPa 0,0 l/m 0 min 0 min 0,0 UV-I 0 W/m 5,1 km/h (1 Bft)
08.04.2014 01:40 13,2 C 11,7 C 97 % 1008,4 hPa 0,0 l/m 0 min 0 min 0,0 UV-I 0 W/m 7,7 km/h (2 Bft)
08.04.2014 01:42 13,2 C 11,7 C 97 % 1008,4 hPa 0,0 l/m 0 min 0 min 0,0 UV-I 0 W/m 5,1 km/h (1 Bft)
08.04.2014 01:44 13,2 C 11,7 C 97 % 1008,4 hPa 0,0 l/m 0 min 0 min 0,0 UV-I 0 W/m 2,6 km/h (1 Bft)
08.04.2014 01:46 13,2 C 11,7 C 97 % 1008,3 hPa 0,0 l/m 0 min 0 min 0,0 UV-I 0 W/m 7,7 km/h (2 Bft)
08.04.2014 01:48 13,2 C 11,7 C 97 % 1008,3 hPa 0,0 l/m 0 min 0 min 0,0 UV-I 0 W/m 10,3 km/h (2 Bft)
08.04.2014 01:50 13,2 C 11,7 C 97 % 1008,3 hPa 0,0 l/m 0 min 0 min 0,0 UV-I 0 W/m 18,0 km/h (3 Bft)
08.04.2014 01:52 13,3 C 11,7 C 97 % 1008,3 hPa 0,0 l/m 0 min 0 min 0,0 UV-I 0 W/m 7,7 km/h (2 Bft)
08.04.2014 01:54 13,2 C 11,7 C 97 % 1008,3 hPa 0,0 l/m 0 min 0 min 0,0 UV-I 0 W/m 5,1 km/h (1 Bft)
08.04.2014 01:56 13,2 C 11,7 C 97 % 1008,4 hPa 0,0 l/m 0 min 0 min 0,0 UV-I 0 W/m 10,3 km/h (2 Bft)
08.04.2014 01:58 13,3 C 11,7 C 97 % 1008,3 hPa 0,0 l/m 0 min 0 min 0,0 UV-I 0 W/m 12,9 km/h (3 Bft)
08.04.2014 02:00 13,3 C 11,7 C 96 % 1008,3 hPa 0,0 l/m 0 min 0 min 0,0 UV-I 0 W/m 7,7 km/h (2 Bft)
08.04.2014 02:02 13,3 C 11,7 C 96 % 1008,3 hPa 0,0 l/m 0 min 0 min 0,0 UV-I 0 W/m 2,6 km/h (1 Bft)
08.04.2014 02:04 13,3 C 11,7 C 96 % 1008,2 hPa 0,0 l/m 0 min 0 min 0,0 UV-I 0 W/m 5,1 km/h (1 Bft)
08.04.2014 02:06 13,3 C 11,7 C 96 % 1008,3 hPa 0,0 l/m 0 min 0 min 0,0 UV-I 0 W/m 12,9 km/h (3 Bft)
08.04.2014 02:08 13,3 C 11,7 C 96 % 1008,3 hPa 0,0 l/m 0 min 0 min 0,0 UV-I 0 W/m 10,3 km/h (2 Bft)
08.04.2014 02:10 13,3 C 11,7 C 96 % 1008,2 hPa 0,0 l/m 0 min 0 min 0,0 UV-I 0 W/m 12,9 km/h (3 Bft)
08.04.2014 02:12 13,3 C 11,7 C 96 % 1008,2 hPa 0,0 l/m 0 min 0 min 0,0 UV-I 0 W/m 2,6 km/h (1 Bft)
08.04.2014 02:14 13,3 C 11,7 C 96 % 1008,1 hPa 0,0 l/m 0 min 0 min 0,0 UV-I 0 W/m 7,7 km/h (2 Bft)
08.04.2014 02:16 13,4 C 11,7 C 96 % 1008,2 hPa 0,0 l/m 0 min 0 min 0,0 UV-I 0 W/m 20,6 km/h (4 Bft)
08.04.2014 02:18 13,4 C 11,7 C 96 % 1008,1 hPa 0,0 l/m 0 min 0 min 0,0 UV-I 0 W/m 12,9 km/h (3 Bft)
08.04.2014 02:20 13,4 C 11,7 C 95 % 1008,2 hPa 0,0 l/m 0 min 0 min 0,0 UV-I 0 W/m 10,3 km/h (2 Bft)
08.04.2014 02:22 13,4 C 11,7 C 95 % 1008,2 hPa 0,0 l/m 0 min 0 min 0,0 UV-I 0 W/m 12,9 km/h (3 Bft)
08.04.2014 02:24 13,4 C 11,7 C 95 % 1008,1 hPa 0,0 l/m 0 min 0 min 0,0 UV-I 0 W/m 10,3 km/h (2 Bft)
08.04.2014 02:26 13,4 C 11,7 C 95 % 1008,1 hPa 0,0 l/m 0 min 0 min 0,0 UV-I 0 W/m 12,9 km/h (3 Bft)
08.04.2014 02:28 13,4 C 11,7 C 95 % 1008,2 hPa 0,0 l/m 0 min 0 min 0,0 UV-I 0 W/m 7,7 km/h (2 Bft)
08.04.2014 02:30 13,4 C 11,7 C 95 % 1008,2 hPa 0,0 l/m 0 min 0 min 0,0 UV-I 0 W/m 5,1 km/h (1 Bft)
08.04.2014 02:32 13,4 C 11,7 C 95 % 1008,2 hPa 0,0 l/m 0 min 0 min 0,0 UV-I 0 W/m 12,9 km/h (3 Bft)
08.04.2014 02:34 13,4 C 11,7 C 95 % 1008,2 hPa 0,0 l/m 0 min 0 min 0,0 UV-I 0 W/m 12,9 km/h (3 Bft)
08.04.2014 02:36 13,4 C 11,7 C 95 % 1008,1 hPa 0,0 l/m 0 min 0 min 0,0 UV-I 0 W/m 15,4 km/h (3 Bft)
08.04.2014 02:38 13,4 C 11,7 C 95 % 1008,1 hPa 0,0 l/m 0 min 0 min 0,0 UV-I 0 W/m 12,9 km/h (3 Bft)
08.04.2014 02:40 13,4 C 11,7 C 95 % 1008,0 hPa 0,0 l/m 0 min 0 min 0,0 UV-I 0 W/m 15,4 km/h (3 Bft)
08.04.2014 02:42 13,3 C 11,1 C 95 % 1008,0 hPa 0,0 l/m 0 min 0 min 0,0 UV-I 0 W/m 10,3 km/h (2 Bft)
08.04.2014 02:44 13,3 C 11,1 C 95 % 1008,1 hPa 0,0 l/m 0 min 0 min 0,0 UV-I 0 W/m 10,3 km/h (2 Bft)
08.04.2014 02:46 13,3 C 11,1 C 95 % 1008,1 hPa 0,0 l/m 0 min 0 min 0,0 UV-I 0 W/m 7,7 km/h (2 Bft)
08.04.2014 02:48 13,3 C 11,7 C 95 % 1008,1 hPa 0,0 l/m 0 min 0 min 0,0 UV-I 0 W/m 12,9 km/h (3 Bft)
08.04.2014 02:50 13,3 C 11,7 C 95 % 1008,0 hPa 0,0 l/m 0 min 0 min 0,0 UV-I 0 W/m 7,7 km/h (2 Bft)
08.04.2014 02:52 13,4 C 11,7 C 95 % 1008,0 hPa 0,0 l/m 0 min 0 min 0,0 UV-I 0 W/m 12,9 km/h (3 Bft)
08.04.2014 02:54 13,4 C 11,7 C 95 % 1008,1 hPa 0,0 l/m 0 min 0 min 0,0 UV-I 0 W/m 18,0 km/h (3 Bft)
08.04.2014 02:56 13,4 C 11,7 C 94 % 1008,0 hPa 0,0 l/m 0 min 0 min 0,0 UV-I 0 W/m 12,9 km/h (3 Bft)
08.04.2014 02:58 13,4 C 11,7 C 94 % 1008,0 hPa 0,0 l/m 0 min 0 min 0,0 UV-I 0 W/m 10,3 km/h (2 Bft)
08.04.2014 03:00 13,5 C 11,7 C 94 % 1007,9 hPa 0,0 l/m 0 min 0 min 0,0 UV-I 0 W/m 15,4 km/h (3 Bft)
08.04.2014 03:02 13,5 C 11,7 C 94 % 1008,0 hPa 0,0 l/m 0 min 0 min 0,0 UV-I 0 W/m 18,0 km/h (3 Bft)
08.04.2014 03:04 13,6 C 11,7 C 94 % 1008,0 hPa 0,0 l/m 0 min 0 min 0,0 UV-I 0 W/m 12,9 km/h (3 Bft)
08.04.2014 03:06 13,6 C 11,7 C 94 % 1008,0 hPa 0,0 l/m 0 min 0 min 0,0 UV-I 0 W/m 20,6 km/h (4 Bft)
08.04.2014 03:08 13,6 C 11,7 C 94 % 1008,0 hPa 0,0 l/m 0 min 0 min 0,0 UV-I 0 W/m 15,4 km/h (3 Bft)
08.04.2014 03:10 13,7 C 11,7 C 93 % 1008,0 hPa 0,0 l/m 0 min 0 min 0,0 UV-I 0 W/m 25,7 km/h (4 Bft)
08.04.2014 03:12 13,8 C 11,7 C 93 % 1008,0 hPa 0,0 l/m 0 min 0 min 0,0 UV-I 0 W/m 15,4 km/h (3 Bft)
08.04.2014 03:14 13,8 C 11,7 C 92 % 1008,0 hPa 0,0 l/m 0 min 0 min 0,0 UV-I 0 W/m 18,0 km/h (3 Bft)
08.04.2014 03:16 13,8 C 11,7 C 92 % 1008,0 hPa 0,0 l/m 0 min 0 min 0,0 UV-I 0 W/m 15,4 km/h (3 Bft)
08.04.2014 03:18 13,8 C 11,7 C 92 % 1007,9 hPa 0,0 l/m 0 min 0 min 0,0 UV-I 0 W/m 12,9 km/h (3 Bft)
08.04.2014 03:20 13,8 C 11,7 C 92 % 1007,8 hPa 0,0 l/m 0 min 0 min 0,0 UV-I 0 W/m 18,0 km/h (3 Bft)
08.04.2014 03:22 13,9 C 11,7 C 91 % 1007,9 hPa 0,0 l/m 0 min 0 min 0,0 UV-I 0 W/m 25,7 km/h (4 Bft)
08.04.2014 03:24 13,9 C 11,7 C 91 % 1007,9 hPa 0,0 l/m 0 min 0 min 0,0 UV-I 0 W/m 12,9 km/h (3 Bft)
08.04.2014 03:26 13,9 C 11,7 C 91 % 1007,9 hPa 0,0 l/m 0 min 0 min 0,0 UV-I 0 W/m 15,4 km/h (3 Bft)
08.04.2014 03:28 13,9 C 11,7 C 91 % 1007,9 hPa 0,0 l/m 0 min 0 min 0,0 UV-I 0 W/m 12,9 km/h (3 Bft)
08.04.2014 03:30 13,9 C 11,7 C 91 % 1007,9 hPa 0,0 l/m 0 min 0 min 0,0 UV-I 0 W/m 12,9 km/h (3 Bft)
08.04.2014 03:32 13,9 C 11,7 C 90 % 1007,9 hPa 0,0 l/m 0 min 0 min 0,0 UV-I 0 W/m 12,9 km/h (3 Bft)
08.04.2014 03:34 13,9 C 11,7 C 90 % 1007,9 hPa 0,0 l/m 0 min 0 min 0,0 UV-I 0 W/m 10,3 km/h (2 Bft)
08.04.2014 03:36 13,9 C 11,7 C 90 % 1007,9 hPa 0,0 l/m 0 min 0 min 0,0 UV-I 0 W/m 10,3 km/h (2 Bft)
08.04.2014 03:38 13,9 C 11,7 C 90 % 1007,8 hPa 0,0 l/m 0 min 0 min 0,0 UV-I 0 W/m 18,0 km/h (3 Bft)
08.04.2014 03:40 13,9 C 11,7 C 90 % 1007,8 hPa 0,0 l/m 0 min 0 min 0,0 UV-I 0 W/m 23,2 km/h (4 Bft)
08.04.2014 03:42 13,9 C 11,7 C 90 % 1007,9 hPa 0,0 l/m 0 min 0 min 0,0 UV-I 0 W/m 23,2 km/h (4 Bft)
08.04.2014 03:44 13,9 C 11,7 C 90 % 1007,8 hPa 0,0 l/m 0 min 0 min 0,0 UV-I 0 W/m 12,9 km/h (3 Bft)
08.04.2014 03:46 14,0 C 11,7 C 89 % 1007,9 hPa 0,0 l/m 0 min 0 min 0,0 UV-I 0 W/m 15,4 km/h (3 Bft)
08.04.2014 03:48 14,1 C 11,7 C 89 % 1007,9 hPa 0,0 l/m 0 min 0 min 0,0 UV-I 0 W/m 7,7 km/h (2 Bft)
08.04.2014 03:50 14,1 C 11,7 C 89 % 1007,9 hPa 0,0 l/m 0 min 0 min 0,0 UV-I 0 W/m 12,9 km/h (3 Bft)
08.04.2014 03:52 14,1 C 11,7 C 89 % 1007,9 hPa 0,0 l/m 0 min 0 min 0,0 UV-I 0 W/m 7,7 km/h (2 Bft)
08.04.2014 03:54 14,1 C 11,7 C 89 % 1007,9 hPa 0,0 l/m 0 min 0 min 0,0 UV-I 0 W/m 7,7 km/h (2 Bft)
08.04.2014 03:56 14,1 C 11,7 C 89 % 1007,9 hPa 0,0 l/m 0 min 0 min 0,0 UV-I 0 W/m 5,1 km/h (1 Bft)
08.04.2014 03:58 14,0 C 11,7 C 90 % 1007,9 hPa 0,0 l/m 0 min 0 min 0,0 UV-I 0 W/m 20,6 km/h (4 Bft)
08.04.2014 04:00 14,0 C 11,7 C 90 % 1007,9 hPa 0,0 l/m 0 min 0 min 0,0 UV-I 0 W/m 25,7 km/h (4 Bft)
08.04.2014 04:05 14,2 C 12,2 C 90 % 1007,9 hPa 0,0 l/m 0 min 0 min 0,0 UV-I 0 W/m 7,7 km/h (2 Bft)
08.04.2014 04:06 14,2 C 12,2 C 90 % 1007,9 hPa 0,0 l/m 0 min 0 min 0,0 UV-I 0 W/m 10,3 km/h (2 Bft)
08.04.2014 04:08 14,2 C 12,2 C 90 % 1007,9 hPa 0,0 l/m 0 min 0 min 0,0 UV-I 0 W/m 10,3 km/h (2 Bft)
08.04.2014 04:10 14,2 C 12,2 C 90 % 1007,9 hPa 0,0 l/m 0 min 0 min 0,0 UV-I 0 W/m 12,9 km/h (3 Bft)
08.04.2014 04:12 14,2 C 12,2 C 90 % 1008,0 hPa 0,0 l/m 0 min 0 min 0,0 UV-I 0 W/m 10,3 km/h (2 Bft)
08.04.2014 04:14 14,2 C 12,2 C 90 % 1007,9 hPa 0,0 l/m 0 min 0 min 0,0 UV-I 0 W/m 20,6 km/h (4 Bft)
08.04.2014 04:16 14,2 C 12,2 C 90 % 1007,8 hPa 0,0 l/m 0 min 0 min 0,0 UV-I 0 W/m 23,2 km/h (4 Bft)
08.04.2014 04:18 14,2 C 12,2 C 89 % 1008,1 hPa 0,0 l/m 0 min 0 min 0,0 UV-I 0 W/m 20,6 km/h (4 Bft)
08.04.2014 04:20 14,2 C 12,2 C 89 % 1007,9 hPa 0,0 l/m 0 min 0 min 0,0 UV-I 0 W/m 23,2 km/h (4 Bft)
08.04.2014 04:22 14,1 C 12,2 C 88 % 1007,9 hPa 0,0 l/m 0 min 0 min 0,0 UV-I 0 W/m 20,6 km/h (4 Bft)
08.04.2014 04:24 14,1 C 12,2 C 88 % 1008,0 hPa 0,0 l/m 0 min 0 min 0,0 UV-I 0 W/m 23,2 km/h (4 Bft)
08.04.2014 04:26 14,0 C 12,2 C 88 % 1007,9 hPa 0,0 l/m 0 min 0 min 0,0 UV-I 0 W/m 28,3 km/h (4 Bft)
08.04.2014 04:28 13,9 C 11,7 C 88 % 1008,0 hPa 0,0 l/m 0 min 2 min 0,0 UV-I 0 W/m 25,7 km/h (4 Bft)
08.04.2014 04:30 13,9 C 11,7 C 88 % 1008,0 hPa 0,0 l/m 0 min 0 min 0,0 UV-I 0 W/m 18,0 km/h (3 Bft)
08.04.2014 04:32 13,8 C 11,7 C 88 % 1008,0 hPa 0,0 l/m 0 min 0 min 0,0 UV-I 0 W/m 15,4 km/h (3 Bft)
08.04.2014 04:34 13,8 C 11,7 C 88 % 1008,0 hPa 0,0 l/m 0 min 0 min 0,0 UV-I 0 W/m 15,4 km/h (3 Bft)
08.04.2014 04:36 13,8 C 11,7 C 88 % 1008,0 hPa 0,0 l/m 0 min 0 min 0,0 UV-I 0 W/m 18,0 km/h (3 Bft)
08.04.2014 04:38 13,7 C 11,7 C 88 % 1008,1 hPa 0,0 l/m 0 min 0 min 0,0 UV-I 0 W/m 25,7 km/h (4 Bft)
08.04.2014 04:40 13,7 C 11,7 C 88 % 1008,2 hPa 0,0 l/m 0 min 0 min 0,0 UV-I 0 W/m 28,3 km/h (4 Bft)
08.04.2014 04:42 13,5 C 11,7 C 87 % 1008,4 hPa 0,0 l/m 0 min 0 min 0,0 UV-I 0 W/m 41,2 km/h (6 Bft)
08.04.2014 04:44 13,3 C 11,1 C 86 % 1008,5 hPa 0,0 l/m 0 min 0 min 0,0 UV-I 0 W/m 28,3 km/h (4 Bft)
08.04.2014 04:46 13,1 C 11,1 C 86 % 1008,4 hPa 0,0 l/m 0 min 0 min 0,0 UV-I 0 W/m 23,2 km/h (4 Bft)
08.04.2014 04:48 12,9 C 11,1 C 85 % 1008,7 hPa 0,0 l/m 0 min 0 min 0,0 UV-I 0 W/m 46,3 km/h (6 Bft)
08.04.2014 04:50 12,7 C 10,6 C 84 % 1008,7 hPa 0,0 l/m 0 min 0 min 0,0 UV-I 0 W/m 28,3 km/h (4 Bft)
08.04.2014 04:52 12,6 C 10,6 C 84 % 1008,7 hPa 0,0 l/m 0 min 0 min 0,0 UV-I 0 W/m 23,2 km/h (4 Bft)
08.04.2014 04:54 12,4 C 10,6 C 85 % 1008,7 hPa 0,0 l/m 0 min 0 min 0,0 UV-I 0 W/m 28,3 km/h (4 Bft)
08.04.2014 04:56 12,3 C 10,6 C 85 % 1008,7 hPa 0,0 l/m 0 min 0 min 0,0 UV-I 0 W/m 23,2 km/h (4 Bft)
08.04.2014 04:58 12,2 C 10,6 C 85 % 1008,8 hPa 0,0 l/m 0 min 0 min 0,0 UV-I 0 W/m 33,5 km/h (5 Bft)
08.04.2014 05:00 12,2 C 10,6 C 85 % 1008,7 hPa 0,0 l/m 0 min 0 min 0,0 UV-I 0 W/m 10,3 km/h (2 Bft)
08.04.2014 05:02 12,1 C 10,6 C 85 % 1008,8 hPa 0,0 l/m 0 min 0 min 0,0 UV-I 0 W/m 20,6 km/h (4 Bft)
08.04.2014 05:04 12,1 C 10,6 C 86 % 1008,9 hPa 0,0 l/m 0 min 0 min 0,0 UV-I 0 W/m 18,0 km/h (3 Bft)
08.04.2014 05:06 12,0 C 10,6 C 86 % 1008,8 hPa 0,0 l/m 0 min 0 min 0,0 UV-I 0 W/m 18,0 km/h (3 Bft)
08.04.2014 05:08 11,9 C 10,6 C 86 % 1008,9 hPa 0,0 l/m 0 min 0 min 0,0 UV-I 0 W/m 18,0 km/h (3 Bft)
08.04.2014 05:10 11,9 C 10,6 C 86 % 1008,9 hPa 0,0 l/m 0 min 0 min 0,0 UV-I 0 W/m 10,3 km/h (2 Bft)
08.04.2014 05:12 11,9 C 10,0 C 86 % 1008,9 hPa 0,0 l/m 0 min 0 min 0,0 UV-I 0 W/m 12,9 km/h (3 Bft)
08.04.2014 05:14 11,8 C 10,0 C 86 % 1008,9 hPa 0,0 l/m 0 min 0 min 0,0 UV-I 0 W/m 33,5 km/h (5 Bft)
08.04.2014 05:16 11,8 C 10,0 C 86 % 1009,0 hPa 0,0 l/m 0 min 0 min 0,0 UV-I 0 W/m 25,7 km/h (4 Bft)
08.04.2014 05:18 11,7 C 10,0 C 86 % 1009,1 hPa 0,0 l/m 0 min 0 min 0,0 UV-I 0 W/m 20,6 km/h (4 Bft)
08.04.2014 05:20 11,7 C 10,0 C 86 % 1009,1 hPa 0,0 l/m 0 min 0 min 0,0 UV-I 0 W/m 20,6 km/h (4 Bft)
08.04.2014 05:22 11,7 C 10,0 C 86 % 1009,3 hPa 0,0 l/m 0 min 0 min 0,0 UV-I 0 W/m 18,0 km/h (3 Bft)
08.04.2014 05:24 11,6 C 10,0 C 87 % 1009,3 hPa 0,0 l/m 0 min 0 min 0,0 UV-I 0 W/m 15,4 km/h (3 Bft)
08.04.2014 05:26 11,6 C 10,0 C 86 % 1009,3 hPa 0,0 l/m 0 min 0 min 0,0 UV-I 0 W/m 15,4 km/h (3 Bft)
08.04.2014 05:28 11,6 C 10,0 C 87 % 1009,3 hPa 0,0 l/m 0 min 0 min 0,0 UV-I 0 W/m 20,6 km/h (4 Bft)
08.04.2014 05:30 11,6 C 10,0 C 86 % 1009,3 hPa 0,0 l/m 0 min 0 min 0,0 UV-I 0 W/m 18,0 km/h (3 Bft)
08.04.2014 05:32 11,6 C 10,0 C 87 % 1009,3 hPa 0,0 l/m 0 min 0 min 0,0 UV-I 0 W/m 18,0 km/h (3 Bft)
08.04.2014 05:34 11,6 C 10,0 C 87 % 1009,4 hPa 0,0 l/m 0 min 0 min 0,0 UV-I 0 W/m 18,0 km/h (3 Bft)
08.04.2014 05:36 11,6 C 10,0 C 87 % 1009,4 hPa 0,0 l/m 0 min 0 min 0,0 UV-I 0 W/m 20,6 km/h (4 Bft)
08.04.2014 05:38 11,6 C 10,0 C 86 % 1009,5 hPa 0,0 l/m 0 min 0 min 0,0 UV-I 0 W/m 15,4 km/h (3 Bft)
08.04.2014 05:40 11,6 C 10,0 C 86 % 1009,4 hPa 0,0 l/m 0 min 0 min 0,0 UV-I 0 W/m 25,7 km/h (4 Bft)
08.04.2014 05:42 11,6 C 10,0 C 86 % 1009,4 hPa 0,0 l/m 0 min 0 min 0,0 UV-I 0 W/m 20,6 km/h (4 Bft)
08.04.2014 05:44 11,6 C 10,0 C 86 % 1009,5 hPa 0,0 l/m 0 min 0 min 0,0 UV-I 0 W/m 12,9 km/h (3 Bft)
08.04.2014 05:46 11,6 C 10,0 C 87 % 1009,5 hPa 0,0 l/m 0 min 0 min 0,0 UV-I 0 W/m 18,0 km/h (3 Bft)
08.04.2014 05:48 11,6 C 10,0 C 87 % 1009,6 hPa 0,0 l/m 0 min 0 min 0,0 UV-I 0 W/m 15,4 km/h (3 Bft)
08.04.2014 05:50 11,6 C 10,0 C 86 % 1009,8 hPa 0,0 l/m 0 min 2 min 0,0 UV-I 0 W/m 18,0 km/h (3 Bft)
08.04.2014 05:52 11,6 C 10,0 C 87 % 1009,7 hPa 0,0 l/m 0 min 2 min 0,0 UV-I 0 W/m 28,3 km/h (4 Bft)
08.04.2014 05:54 11,5 C 10,0 C 87 % 1009,7 hPa 0,0 l/m 0 min 2 min 0,0 UV-I 0 W/m 28,3 km/h (4 Bft)
08.04.2014 05:56 11,4 C 9,4 C 88 % 1009,8 hPa 0,0 l/m 0 min 2 min 0,0 UV-I 0 W/m 7,7 km/h (2 Bft)
08.04.2014 05:58 11,3 C 9,4 C 88 % 1009,9 hPa 0,0 l/m 0 min 0 min 0,0 UV-I 0 W/m 18,0 km/h (3 Bft)
08.04.2014 06:00 11,3 C 9,4 C 88 % 1009,9 hPa 0,0 l/m 0 min 0 min 0,0 UV-I 0 W/m 36,0 km/h (5 Bft)
08.04.2014 06:02 11,2 C 9,4 C 89 % 1010,0 hPa 0,0 l/m 0 min 0 min 0,0 UV-I 0 W/m 20,6 km/h (4 Bft)
08.04.2014 06:04 11,2 C 9,4 C 89 % 1010,0 hPa 0,0 l/m 0 min 2 min 0,0 UV-I 0 W/m 23,2 km/h (4 Bft)
08.04.2014 06:06 11,1 C 9,4 C 89 % 1010,0 hPa 0,0 l/m 0 min 2 min 0,0 UV-I 0 W/m 23,2 km/h (4 Bft)
08.04.2014 06:08 11,0 C 9,4 C 90 % 1010,1 hPa 0,0 l/m 0 min 2 min 0,0 UV-I 0 W/m 20,6 km/h (4 Bft)
08.04.2014 06:10 10,9 C 9,4 C 90 % 1010,1 hPa 0,0 l/m 0 min 2 min 0,0 UV-I 0 W/m 15,4 km/h (3 Bft)
08.04.2014 06:12 10,9 C 9,4 C 91 % 1010,2 hPa 0,0 l/m 0 min 2 min 0,0 UV-I 0 W/m 36,0 km/h (5 Bft)
08.04.2014 06:14 10,8 C 9,4 C 91 % 1010,3 hPa 0,0 l/m 0 min 2 min 0,0 UV-I 0 W/m 23,2 km/h (4 Bft)
08.04.2014 06:16 10,8 C 9,4 C 91 % 1010,3 hPa 0,2 l/m 0 min 2 min 0,0 UV-I 0 W/m 28,3 km/h (4 Bft)
08.04.2014 06:18 10,7 C 8,9 C 92 % 1010,3 hPa 0,0 l/m 0 min 2 min 0,0 UV-I 0 W/m 12,9 km/h (3 Bft)
08.04.2014 06:20 10,7 C 9,4 C 92 % 1010,4 hPa 0,0 l/m 0 min 2 min 0,0 UV-I 0 W/m 12,9 km/h (3 Bft)
08.04.2014 06:22 10,7 C 8,9 C 92 % 1010,6 hPa 0,2 l/m 0 min 2 min 0,0 UV-I 0 W/m 0,0 km/h (0 Bft)
08.04.2014 06:24 10,6 C 8,9 C 92 % 1010,8 hPa 0,2 l/m 0 min 2 min 0,0 UV-I 0 W/m 10,3 km/h (2 Bft)
08.04.2014 06:26 10,6 C 8,9 C 93 % 1010,9 hPa 0,2 l/m 0 min 2 min 0,0 UV-I 0 W/m 15,4 km/h (3 Bft)
08.04.2014 06:28 10,4 C 8,9 C 93 % 1010,9 hPa 0,2 l/m 0 min 2 min 0,0 UV-I 0 W/m 12,9 km/h (3 Bft)
08.04.2014 06:30 10,2 C 8,9 C 93 % 1010,9 hPa 0,0 l/m 0 min 2 min 0,0 UV-I 0 W/m 20,6 km/h (4 Bft)
08.04.2014 06:32 9,9 C 8,3 C 93 % 1011,0 hPa 0,0 l/m 0 min 2 min 0,0 UV-I 0 W/m 5,1 km/h (1 Bft)
08.04.2014 06:34 9,8 C 8,3 C 93 % 1011,1 hPa 0,0 l/m 0 min 2 min 0,0 UV-I 0 W/m 7,7 km/h (2 Bft)
08.04.2014 06:36 9,7 C 8,3 C 93 % 1011,1 hPa 0,0 l/m 0 min 2 min 0,0 UV-I 0 W/m 12,9 km/h (3 Bft)
08.04.2014 06:38 9,6 C 8,3 C 93 % 1011,1 hPa 0,2 l/m 0 min 2 min 0,0 UV-I 0 W/m 23,2 km/h (4 Bft)
08.04.2014 06:40 9,4 C 8,3 C 93 % 1011,1 hPa 0,0 l/m 0 min 2 min 0,0 UV-I 0 W/m 12,9 km/h (3 Bft)
08.04.2014 06:42 9,4 C 8,3 C 94 % 1011,2 hPa 0,0 l/m 0 min 2 min 0,0 UV-I 0 W/m 18,0 km/h (3 Bft)
08.04.2014 06:44 9,4 C 7,8 C 94 % 1011,1 hPa 0,0 l/m 0 min 2 min 0,0 UV-I 0 W/m 2,6 km/h (1 Bft)
08.04.2014 06:46 9,3 C 7,8 C 94 % 1011,2 hPa 0,0 l/m 0 min 0 min 0,0 UV-I 0 W/m 20,6 km/h (4 Bft)
08.04.2014 06:48 9,3 C 7,8 C 94 % 1011,3 hPa 0,0 l/m 0 min 0 min 0,0 UV-I 0 W/m 15,4 km/h (3 Bft)
08.04.2014 06:50 9,2 C 7,8 C 94 % 1011,4 hPa 0,0 l/m 0 min 0 min 0,0 UV-I 0 W/m 7,7 km/h (2 Bft)
08.04.2014 06:52 9,2 C 7,8 C 94 % 1011,4 hPa 0,0 l/m 0 min 0 min 0,0 UV-I 0 W/m 15,4 km/h (3 Bft)
08.04.2014 06:54 9,2 C 7,8 C 94 % 1011,5 hPa 0,0 l/m 0 min 0 min 0,0 UV-I 0 W/m 5,1 km/h (1 Bft)
08.04.2014 06:56 9,1 C 7,8 C 98 % 1011,5 hPa 0,0 l/m 0 min 0 min 0,0 UV-I 5 W/m 23,2 km/h (4 Bft)
08.04.2014 06:58 9,1 C 7,8 C 94 % 1011,5 hPa 0,0 l/m 0 min 0 min 0,0 UV-I 5 W/m 7,7 km/h (2 Bft)
08.04.2014 07:00 9,1 C 7,8 C 94 % 1011,6 hPa 0,0 l/m 0 min 2 min 0,0 UV-I 7 W/m 7,7 km/h (2 Bft)
08.04.2014 07:02 9,1 C 7,8 C 94 % 1011,6 hPa 0,0 l/m 0 min 0 min 0,0 UV-I 7 W/m 5,1 km/h (1 Bft)
08.04.2014 07:04 9,1 C 7,8 C 95 % 1011,6 hPa 0,0 l/m 0 min 0 min 0,0 UV-I 7 W/m 12,9 km/h (3 Bft)
08.04.2014 07:06 9,0 C 7,8 C 95 % 1011,6 hPa 0,0 l/m 0 min 0 min 0,0 UV-I 9 W/m 5,1 km/h (1 Bft)
08.04.2014 07:08 9,0 C 7,8 C 95 % 1011,7 hPa 0,0 l/m 0 min 0 min 0,0 UV-I 11 W/m 23,2 km/h (4 Bft)
08.04.2014 07:10 9,0 C 7,8 C 95 % 1011,6 hPa 0,0 l/m 0 min 0 min 0,0 UV-I 11 W/m 18,0 km/h (3 Bft)
08.04.2014 07:12 9,0 C 7,8 C 95 % 1011,7 hPa 0,0 l/m 0 min 0 min 0,0 UV-I 12 W/m 2,6 km/h (1 Bft)
08.04.2014 07:14 9,0 C 7,8 C 95 % 1011,8 hPa 0,0 l/m 0 min 0 min 0,0 UV-I 14 W/m 10,3 km/h (2 Bft)
08.04.2014 07:16 9,0 C 7,8 C 95 % 1011,8 hPa 0,0 l/m 0 min 0 min 0,0 UV-I 18 W/m 12,9 km/h (3 Bft)
08.04.2014 07:18 9,0 C 7,8 C 95 % 1011,8 hPa 0,0 l/m 0 min 0 min 0,0 UV-I 25 W/m 10,3 km/h (2 Bft)
08.04.2014 07:20 9,0 C 7,8 C 95 % 1011,9 hPa 0,0 l/m 0 min 0 min 0,0 UV-I 28 W/m 18,0 km/h (3 Bft)
08.04.2014 07:22 9,0 C 7,8 C 95 % 1011,8 hPa 0,0 l/m 0 min 0 min 0,0 UV-I 28 W/m 15,4 km/h (3 Bft)
08.04.2014 07:24 9,1 C 7,8 C 95 % 1011,9 hPa 0,0 l/m 0 min 0 min 0,0 UV-I 25 W/m 10,3 km/h (2 Bft)
08.04.2014 07:26 9,1 C 7,8 C 95 % 1012,0 hPa 0,0 l/m 0 min 0 min 0,0 UV-I 19 W/m 12,9 km/h (3 Bft)
08.04.2014 07:28 9,2 C 7,8 C 95 % 1012,0 hPa 0,0 l/m 0 min 0 min 0,0 UV-I 19 W/m 10,3 km/h (2 Bft)
08.04.2014 07:30 9,2 C 8,3 C 95 % 1012,1 hPa 0,0 l/m 0 min 0 min 0,0 UV-I 19 W/m 5,1 km/h (1 Bft)
08.04.2014 07:32 9,2 C 7,8 C 95 % 1012,1 hPa 0,0 l/m 0 min 0 min 0,0 UV-I 23 W/m 10,3 km/h (2 Bft)
08.04.2014 07:34 9,2 C 7,8 C 95 % 1012,1 hPa 0,0 l/m 0 min 0 min 0,0 UV-I 37 W/m 25,7 km/h (4 Bft)
08.04.2014 07:36 9,2 C 7,8 C 95 % 1012,2 hPa 0,0 l/m 0 min 0 min 0,0 UV-I 28 W/m 12,9 km/h (3 Bft)
08.04.2014 07:38 9,2 C 7,8 C 95 % 1012,2 hPa 0,0 l/m 0 min 0 min 0,0 UV-I 19 W/m 7,7 km/h (2 Bft)
08.04.2014 07:40 9,3 C 7,8 C 95 % 1012,2 hPa 0,0 l/m 0 min 0 min 0,0 UV-I 18 W/m 10,3 km/h (2 Bft)
08.04.2014 07:42 9,3 C 7,8 C 95 % 1012,3 hPa 0,0 l/m 0 min 0 min 0,0 UV-I 23 W/m 15,4 km/h (3 Bft)
08.04.2014 07:44 9,3 C 7,8 C 95 % 1012,3 hPa 0,0 l/m 0 min 0 min 0,0 UV-I 28 W/m 2,6 km/h (1 Bft)
08.04.2014 07:46 9,3 C 7,8 C 94 % 1012,2 hPa 0,0 l/m 0 min 0 min 0,0 UV-I 46 W/m 0,0 km/h (0 Bft)
08.04.2014 07:48 9,3 C 7,8 C 94 % 1012,4 hPa 0,0 l/m 0 min 0 min 0,0 UV-I 60 W/m 10,3 km/h (2 Bft)
08.04.2014 07:50 9,3 C 7,8 C 94 % 1012,3 hPa 0,0 l/m 0 min 0 min 0,0 UV-I 54 W/m 10,3 km/h (2 Bft)
08.04.2014 07:52 9,3 C 7,8 C 94 % 1012,4 hPa 0,0 l/m 0 min 0 min 0,0 UV-I 42 W/m 5,1 km/h (1 Bft)
08.04.2014 07:54 9,3 C 7,8 C 94 % 1012,4 hPa 0,0 l/m 0 min 0 min 0,0 UV-I 42 W/m 18,0 km/h (3 Bft)
08.04.2014 07:56 9,3 C 7,8 C 94 % 1012,5 hPa 0,0 l/m 0 min 0 min 0,0 UV-I 47 W/m 10,3 km/h (2 Bft)
08.04.2014 07:58 9,4 C 7,8 C 94 % 1012,5 hPa 0,0 l/m 0 min 0 min 0,0 UV-I 54 W/m 7,7 km/h (2 Bft)
08.04.2014 08:00 9,4 C 7,8 C 94 % 1012,5 hPa 0,0 l/m 0 min 0 min 0,0 UV-I 63 W/m 10,3 km/h (2 Bft)
08.04.2014 08:02 9,4 C 7,8 C 93 % 1012,6 hPa 0,0 l/m 0 min 0 min 0,0 UV-I 58 W/m 12,9 km/h (3 Bft)
08.04.2014 08:04 9,4 C 7,8 C 93 % 1012,7 hPa 0,0 l/m 0 min 0 min 0,0 UV-I 58 W/m 12,9 km/h (3 Bft)
08.04.2014 08:06 9,4 C 7,8 C 93 % 1012,6 hPa 0,0 l/m 0 min 0 min 0,0 UV-I 69 W/m 15,4 km/h (3 Bft)
08.04.2014 08:08 9,5 C 7,8 C 93 % 1012,7 hPa 0,0 l/m 0 min 0 min 0,0 UV-I 90 W/m 10,3 km/h (2 Bft)
08.04.2014 08:10 9,6 C 8,3 C 93 % 1012,6 hPa 0,0 l/m 0 min 0 min 0,0 UV-I 91 W/m 12,9 km/h (3 Bft)
08.04.2014 08:12 9,6 C 8,3 C 93 % 1012,7 hPa 0,0 l/m 0 min 0 min 0,0 UV-I 84 W/m 10,3 km/h (2 Bft)
08.04.2014 08:14 9,7 C 8,3 C 93 % 1012,8 hPa 0,0 l/m 0 min 0 min 0,0 UV-I 76 W/m 12,9 km/h (3 Bft)
08.04.2014 08:16 9,7 C 8,3 C 93 % 1012,8 hPa 0,0 l/m 0 min 0 min 0,0 UV-I 77 W/m 15,4 km/h (3 Bft)
08.04.2014 08:18 9,7 C 8,3 C 92 % 1012,8 hPa 0,0 l/m 0 min 0 min 0,0 UV-I 67 W/m 15,4 km/h (3 Bft)
08.04.2014 08:20 9,8 C 8,3 C 92 % 1012,9 hPa 0,0 l/m 0 min 0 min 0,0 UV-I 58 W/m 10,3 km/h (2 Bft)
08.04.2014 08:22 9,8 C 8,3 C 92 % 1012,9 hPa 0,0 l/m 0 min 0 min 0,0 UV-I 67 W/m 7,7 km/h (2 Bft)
08.04.2014 08:24 9,8 C 8,3 C 92 % 1012,9 hPa 0,0 l/m 0 min 0 min 0,0 UV-I 58 W/m 20,6 km/h (4 Bft)
08.04.2014 08:26 9,8 C 8,3 C 91 % 1013,0 hPa 0,0 l/m 0 min 0 min 0,0 UV-I 51 W/m 12,9 km/h (3 Bft)
08.04.2014 08:28 9,7 C 7,8 C 91 % 1013,0 hPa 0,0 l/m 0 min 0 min 0,0 UV-I 56 W/m 7,7 km/h (2 Bft)
08.04.2014 08:30 9,7 C 7,8 C 91 % 1013,0 hPa 0,0 l/m 0 min 0 min 0,0 UV-I 67 W/m 12,9 km/h (3 Bft)
08.04.2014 08:32 9,6 C 7,8 C 90 % 1013,2 hPa 0,0 l/m 0 min 0 min 0,0 UV-I 81 W/m 25,7 km/h (4 Bft)
08.04.2014 08:34 9,6 C 7,8 C 90 % 1013,2 hPa 0,0 l/m 2 min 0 min 0,0 UV-I 229 W/m 18,0 km/h (3 Bft)
08.04.2014 08:36 9,6 C 7,8 C 89 % 1013,2 hPa 0,0 l/m 2 min 0 min 0,0 UV-I 193 W/m 18,0 km/h (3 Bft)
08.04.2014 08:38 9,6 C 7,8 C 89 % 1013,3 hPa 0,0 l/m 0 min 0 min 0,0 UV-I 91 W/m 18,0 km/h (3 Bft)
08.04.2014 08:40 9,6 C 7,8 C 89 % 1013,4 hPa 0,0 l/m 0 min 0 min 0,0 UV-I 81 W/m 18,0 km/h (3 Bft)
08.04.2014 08:42 9,6 C 7,8 C 88 % 1013,5 hPa 0,0 l/m 0 min 0 min 0,0 UV-I 67 W/m 18,0 km/h (3 Bft)
08.04.2014 08:44 9,6 C 7,8 C 88 % 1013,5 hPa 0,0 l/m 0 min 0 min 0,0 UV-I 91 W/m 12,9 km/h (3 Bft)
08.04.2014 08:46 9,6 C 7,8 C 88 % 1013,5 hPa 0,0 l/m 0 min 0 min 0,0 UV-I 60 W/m 18,0 km/h (3 Bft)
08.04.2014 08:48 9,6 C 7,8 C 88 % 1013,6 hPa 0,0 l/m 0 min 0 min 0,0 UV-I 51 W/m 18,0 km/h (3 Bft)
08.04.2014 08:50 9,5 C 7,8 C 88 % 1013,6 hPa 0,0 l/m 0 min 0 min 0,0 UV-I 69 W/m 33,5 km/h (5 Bft)
08.04.2014 08:52 9,5 C 7,8 C 87 % 1013,6 hPa 0,0 l/m 0 min 0 min 0,0 UV-I 63 W/m 5,1 km/h (1 Bft)
08.04.2014 08:54 9,5 C 7,8 C 88 % 1013,6 hPa 0,0 l/m 0 min 0 min 0,0 UV-I 72 W/m 10,3 km/h (2 Bft)
08.04.2014 08:56 9,5 C 7,8 C 88 % 1013,6 hPa 0,0 l/m 2 min 0 min 0,0 UV-I 181 W/m 7,7 km/h (2 Bft)
08.04.2014 08:58 9,5 C 7,8 C 88 % 1013,6 hPa 0,0 l/m 0 min 0 min 0,0 UV-I 163 W/m 20,6 km/h (4 Bft)
08.04.2014 09:00 9,5 C 7,8 C 88 % 1013,7 hPa 0,0 l/m 0 min 0 min 0,0 UV-I 114 W/m 15,4 km/h (3 Bft)
08.04.2014 09:02 9,6 C 7,8 C 87 % 1013,7 hPa 0,0 l/m 0 min 0 min 0,0 UV-I 167 W/m 10,3 km/h (2 Bft)
08.04.2014 09:04 9,6 C 7,8 C 87 % 1013,7 hPa 0,0 l/m 2 min 0 min 0,0 UV-I 243 W/m 15,4 km/h (3 Bft)
08.04.2014 09:06 9,7 C 7,8 C 87 % 1013,7 hPa 0,0 l/m 2 min 0 min 0,0 UV-I 239 W/m 18,0 km/h (3 Bft)
08.04.2014 09:08 9,8 C 8,3 C 87 % 1013,7 hPa 0,0 l/m 0 min 0 min 0,0 UV-I 176 W/m 7,7 km/h (2 Bft)
08.04.2014 09:10 9,9 C 8,3 C 87 % 1013,7 hPa 0,0 l/m 0 min 0 min 0,0 UV-I 174 W/m 10,3 km/h (2 Bft)
08.04.2014 09:12 9,8 C 8,3 C 86 % 1013,7 hPa 0,0 l/m 0 min 0 min 0,0 UV-I 155 W/m 10,3 km/h (2 Bft)
08.04.2014 09:14 9,9 C 8,3 C 86 % 1013,7 hPa 0,0 l/m 0 min 0 min 0,0 UV-I 151 W/m 10,3 km/h (2 Bft)
08.04.2014 09:16 9,9 C 8,3 C 86 % 1013,7 hPa 0,0 l/m 0 min 0 min 0,0 UV-I 151 W/m 28,3 km/h (4 Bft)
08.04.2014 09:18 9,9 C 8,3 C 86 % 1013,7 hPa 0,0 l/m 0 min 0 min 0,0 UV-I 162 W/m 15,4 km/h (3 Bft)
08.04.2014 09:20 9,9 C 8,3 C 86 % 1013,8 hPa 0,0 l/m 0 min 0 min 0,0 UV-I 179 W/m 10,3 km/h (2 Bft)
08.04.2014 09:22 9,9 C 8,3 C 86 % 1013,7 hPa 0,0 l/m 0 min 0 min 0,0 UV-I 141 W/m 15,4 km/h (3 Bft)
08.04.2014 09:24 9,9 C 7,8 C 86 % 1013,8 hPa 0,0 l/m 0 min 0 min 0,0 UV-I 123 W/m 18,0 km/h (3 Bft)
08.04.2014 09:26 9,9 C 7,8 C 86 % 1013,8 hPa 0,0 l/m 0 min 0 min 0,0 UV-I 156 W/m 15,4 km/h (3 Bft)
08.04.2014 09:28 9,9 C 8,3 C 86 % 1013,9 hPa 0,0 l/m 0 min 0 min 0,0 UV-I 165 W/m 10,3 km/h (2 Bft)
08.04.2014 09:30 9,9 C 8,3 C 85 % 1013,8 hPa 0,0 l/m 0 min 0 min 0,0 UV-I 199 W/m 10,3 km/h (2 Bft)
08.04.2014 09:32 9,9 C 8,3 C 85 % 1013,8 hPa 0,0 l/m 0 min 0 min 0,0 UV-I 192 W/m 12,9 km/h (3 Bft)
08.04.2014 09:34 10,0 C 8,3 C 85 % 1013,9 hPa 0,0 l/m 2 min 0 min 0,0 UV-I 244 W/m 10,3 km/h (2 Bft)
08.04.2014 09:36 10,1 C 8,3 C 85 % 1014,0 hPa 0,0 l/m 2 min 0 min 0,0 UV-I 448 W/m 12,9 km/h (3 Bft)
08.04.2014 09:38 10,1 C 8,3 C 85 % 1013,9 hPa 0,0 l/m 0 min 0 min 0,0 UV-I 76 W/m 25,7 km/h (4 Bft)
08.04.2014 09:40 10,1 C 7,8 C 84 % 1013,9 hPa 0,0 l/m 0 min 0 min 0,0 UV-I 81 W/m 20,6 km/h (4 Bft)
08.04.2014 09:42 10,0 C 7,8 C 85 % 1014,0 hPa 0,0 l/m 0 min 0 min 0,0 UV-I 76 W/m 10,3 km/h (2 Bft)
08.04.2014 09:44 10,0 C 7,8 C 85 % 1014,0 hPa 0,0 l/m 0 min 0 min 0,0 UV-I 53 W/m 23,2 km/h (4 Bft)
08.04.2014 09:46 9,9 C 7,8 C 85 % 1014,0 hPa 0,0 l/m 0 min 0 min 0,0 UV-I 47 W/m 20,6 km/h (4 Bft)
08.04.2014 09:48 9,9 C 7,8 C 85 % 1014,0 hPa 0,0 l/m 0 min 0 min 0,0 UV-I 69 W/m 15,4 km/h (3 Bft)
08.04.2014 09:50 9,8 C 7,8 C 85 % 1014,1 hPa 0,0 l/m 0 min 0 min 0,0 UV-I 111 W/m 15,4 km/h (3 Bft)
08.04.2014 09:52 9,8 C 7,8 C 85 % 1014,1 hPa 0,0 l/m 0 min 0 min 0,0 UV-I 155 W/m 15,4 km/h (3 Bft)
08.04.2014 09:54 9,8 C 7,8 C 85 % 1014,1 hPa 0,0 l/m 0 min 0 min 0,0 UV-I 204 W/m 12,9 km/h (3 Bft)
08.04.2014 09:56 9,9 C 8,3 C 85 % 1014,0 hPa 0,0 l/m 0 min 0 min 0,0 UV-I 163 W/m 10,3 km/h (2 Bft)
08.04.2014 09:58 10,0 C 8,3 C 85 % 1014,0 hPa 0,0 l/m 0 min 0 min 0,0 UV-I 141 W/m 12,9 km/h (3 Bft)
08.04.2014 10:00 9,9 C 8,3 C 84 % 1014,0 hPa 0,0 l/m 0 min 0 min 0,0 UV-I 95 W/m 20,6 km/h (4 Bft)
08.04.2014 10:02 9,9 C 7,8 C 83 % 1014,1 hPa 0,0 l/m 0 min 0 min 0,0 UV-I 111 W/m 28,3 km/h (4 Bft)
08.04.2014 10:06 10,1 C 7,8 C 83 % 1014,1 hPa 0,0 l/m 0 min 0 min 0,0 UV-I 151 W/m 20,6 km/h (4 Bft)
08.04.2014 10:08 10,1 C 8,3 C 83 % 1014,1 hPa 0,0 l/m 0 min 0 min 0,5 UV-I 232 W/m 20,6 km/h (4 Bft)
08.04.2014 10:10 10,2 C 8,3 C 82 % 1014,0 hPa 0,0 l/m 2 min 0 min 0,0 UV-I 555 W/m 25,7 km/h (4 Bft)
08.04.2014 10:12 10,3 C 8,3 C 82 % 1014,1 hPa 0,0 l/m 0 min 0 min 0,0 UV-I 236 W/m 23,2 km/h (4 Bft)
08.04.2014 10:14 10,4 C 8,3 C 82 % 1014,1 hPa 0,0 l/m 0 min 0 min 0,0 UV-I 163 W/m 5,1 km/h (1 Bft)
08.04.2014 10:16 10,5 C 8,3 C 82 % 1014,0 hPa 0,0 l/m 0 min 0 min 0,0 UV-I 153 W/m 7,7 km/h (2 Bft)
08.04.2014 10:18 10,5 C 8,3 C 81 % 1014,0 hPa 0,0 l/m 0 min 0 min 0,0 UV-I 181 W/m 18,0 km/h (3 Bft)
08.04.2014 10:20 10,5 C 8,3 C 81 % 1014,0 hPa 0,0 l/m 0 min 0 min 0,0 UV-I 156 W/m 15,4 km/h (3 Bft)
08.04.2014 10:22 10,5 C 8,3 C 81 % 1014,0 hPa 0,0 l/m 0 min 0 min 0,0 UV-I 104 W/m 23,2 km/h (4 Bft)
08.04.2014 10:24 10,4 C 8,3 C 81 % 1014,1 hPa 0,0 l/m 0 min 2 min 0,0 UV-I 84 W/m 18,0 km/h (3 Bft)
08.04.2014 10:26 10,4 C 8,3 C 82 % 1014,1 hPa 0,0 l/m 0 min 2 min 0,0 UV-I 105 W/m 12,9 km/h (3 Bft)
08.04.2014 10:28 10,3 C 8,3 C 83 % 1014,0 hPa 0,0 l/m 0 min 2 min 0,0 UV-I 134 W/m 12,9 km/h (3 Bft)
08.04.2014 10:30 10,2 C 8,3 C 84 % 1014,0 hPa 0,0 l/m 0 min 0 min 0,0 UV-I 174 W/m 12,9 km/h (3 Bft)
08.04.2014 10:32 10,2 C 8,3 C 84 % 1014,0 hPa 0,0 l/m 0 min 0 min 0,0 UV-I 239 W/m 10,3 km/h (2 Bft)
08.04.2014 10:34 10,4 C 8,9 C 85 % 1014,0 hPa 0,0 l/m 0 min 0 min 0,8 UV-I 239 W/m 10,3 km/h (2 Bft)
08.04.2014 10:36 10,7 C 8,9 C 83 % 1014,0 hPa 0,0 l/m 2 min 0 min 0,0 UV-I 624 W/m 7,7 km/h (2 Bft)
08.04.2014 10:38 10,8 C 8,9 C 82 % 1014,0 hPa 0,0 l/m 0 min 0 min 0,0 UV-I 214 W/m 15,4 km/h (3 Bft)
08.04.2014 10:40 10,8 C 8,9 C 81 % 1014,1 hPa 0,0 l/m 0 min 0 min 0,5 UV-I 251 W/m 18,0 km/h (3 Bft)
08.04.2014 10:42 10,9 C 8,9 C 81 % 1014,1 hPa 0,0 l/m 0 min 0 min 0,0 UV-I 153 W/m 10,3 km/h (2 Bft)
08.04.2014 10:44 10,8 C 8,9 C 81 % 1014,1 hPa 0,0 l/m 0 min 2 min 0,0 UV-I 111 W/m 20,6 km/h (4 Bft)
08.04.2014 10:46 10,7 C 8,3 C 81 % 1014,3 hPa 0,0 l/m 0 min 2 min 0,0 UV-I 128 W/m 12,9 km/h (3 Bft)
08.04.2014 10:48 10,5 C 8,3 C 81 % 1014,2 hPa 0,0 l/m 0 min 2 min 0,0 UV-I 167 W/m 15,4 km/h (3 Bft)
08.04.2014 10:50 10,4 C 8,3 C 81 % 1014,4 hPa 0,0 l/m 0 min 2 min 0,0 UV-I 146 W/m 25,7 km/h (4 Bft)
08.04.2014 10:52 10,2 C 8,3 C 83 % 1014,3 hPa 0,0 l/m 0 min 2 min 0,0 UV-I 134 W/m 15,4 km/h (3 Bft)
08.04.2014 10:54 10,1 C 8,3 C 84 % 1014,4 hPa 0,0 l/m 0 min 2 min 0,0 UV-I 151 W/m 15,4 km/h (3 Bft)
08.04.2014 10:56 10,1 C 8,3 C 85 % 1014,4 hPa 0,0 l/m 0 min 2 min 0,0 UV-I 137 W/m 18,0 km/h (3 Bft)
08.04.2014 10:58 10,0 C 8,3 C 86 % 1014,5 hPa 0,0 l/m 0 min 2 min 0,0 UV-I 250 W/m 7,7 km/h (2 Bft)
08.04.2014 11:00 10,1 C 8,9 C 86 % 1014,4 hPa 0,0 l/m 0 min 0 min 0,0 UV-I 246 W/m 2,6 km/h (1 Bft)
08.04.2014 11:02 10,2 C 8,9 C 87 % 1014,4 hPa 0,0 l/m 0 min 0 min 0,0 UV-I 246 W/m 12,9 km/h (3 Bft)
08.04.2014 11:06 10,2 C 8,9 C 86 % 1014,4 hPa 0,2 l/m 0 min 0 min 0,9 UV-I 258 W/m 25,7 km/h (4 Bft)
08.04.2014 11:08 10,4 C 8,9 C 85 % 1014,3 hPa 0,0 l/m 2 min 0 min 1,3 UV-I 640 W/m 20,6 km/h (4 Bft)
08.04.2014 11:10 10,7 C 9,4 C 84 % 1014,3 hPa 0,0 l/m 2 min 0 min 1,4 UV-I 661 W/m 23,2 km/h (4 Bft)
08.04.2014 11:12 11,1 C 10,0 C 84 % 1014,3 hPa 0,0 l/m 2 min 0 min 1,4 UV-I 666 W/m 12,9 km/h (3 Bft)
08.04.2014 11:14 11,5 C 10,0 C 84 % 1014,4 hPa 0,0 l/m 2 min 0 min 1,5 UV-I 663 W/m 10,3 km/h (2 Bft)
08.04.2014 11:16 12,0 C 10,6 C 84 % 1014,3 hPa 0,0 l/m 2 min 0 min 1,5 UV-I 679 W/m 15,4 km/h (3 Bft)
08.04.2014 11:18 12,1 C 10,0 C 81 % 1014,4 hPa 0,0 l/m 2 min 0 min 1,6 UV-I 640 W/m 20,6 km/h (4 Bft)
08.04.2014 11:20 12,1 C 10,0 C 77 % 1014,3 hPa 0,0 l/m 2 min 0 min 1,7 UV-I 691 W/m 23,2 km/h (4 Bft)
08.04.2014 11:22 12,1 C 10,0 C 77 % 1014,3 hPa 0,0 l/m 2 min 0 min 1,0 UV-I 721 W/m 18,0 km/h (3 Bft)
08.04.2014 11:24 12,1 C 10,0 C 76 % 1014,4 hPa 0,0 l/m 2 min 0 min 1,0 UV-I 786 W/m 18,0 km/h (3 Bft)
08.04.2014 11:26 12,3 C 10,6 C 77 % 1014,4 hPa 0,0 l/m 2 min 0 min 1,4 UV-I 786 W/m 18,0 km/h (3 Bft)
08.04.2014 11:28 12,4 C 10,6 C 76 % 1014,4 hPa 0,0 l/m 2 min 0 min 1,6 UV-I 835 W/m 12,9 km/h (3 Bft)
08.04.2014 11:30 12,5 C 11,1 C 75 % 1014,4 hPa 0,0 l/m 2 min 0 min 0,0 UV-I 677 W/m 20,6 km/h (4 Bft)
08.04.2014 11:32 12,4 C 11,1 C 75 % 1014,5 hPa 0,0 l/m 0 min 0 min 0,0 UV-I 178 W/m 10,3 km/h (2 Bft)
08.04.2014 11:34 12,1 C 11,1 C 76 % 1014,6 hPa 0,0 l/m 0 min 0 min 0,0 UV-I 169 W/m 18,0 km/h (3 Bft)
08.04.2014 11:36 11,7 C 10,6 C 76 % 1014,6 hPa 0,0 l/m 0 min 0 min 0,0 UV-I 125 W/m 15,4 km/h (3 Bft)
08.04.2014 11:38 11,3 C 10,6 C 76 % 1014,6 hPa 0,0 l/m 0 min 2 min 0,0 UV-I 91 W/m 10,3 km/h (2 Bft)
08.04.2014 11:40 11,0 C 9,4 C 78 % 1014,7 hPa 0,0 l/m 0 min 2 min 0,0 UV-I 28 W/m 18,0 km/h (3 Bft)
08.04.2014 11:42 10,7 C 8,3 C 79 % 1015,3 hPa 0,2 l/m 0 min 2 min 0,0 UV-I 26 W/m 15,4 km/h (3 Bft)
08.04.2014 11:44 10,2 C 7,2 C 82 % 1015,5 hPa 0,4 l/m 0 min 2 min 0,0 UV-I 49 W/m 36,0 km/h (5 Bft)
08.04.2014 11:46 9,4 C 6,7 C 82 % 1015,7 hPa 0,2 l/m 0 min 2 min 0,0 UV-I 76 W/m 38,6 km/h (5 Bft)
08.04.2014 11:48 8,8 C 6,7 C 84 % 1015,7 hPa 0,0 l/m 0 min 2 min 0,0 UV-I 86 W/m 23,2 km/h (4 Bft)
08.04.2014 11:50 8,2 C 6,1 C 85 % 1015,4 hPa 0,0 l/m 0 min 2 min 0,0 UV-I 95 W/m 30,9 km/h (5 Bft)
08.04.2014 11:52 7,8 C 6,1 C 86 % 1015,2 hPa 0,0 l/m 0 min 2 min 0,0 UV-I 158 W/m 12,9 km/h (3 Bft)
08.04.2014 11:54 7,6 C 6,1 C 87 % 1015,1 hPa 0,0 l/m 0 min 0 min 0,0 UV-I 207 W/m 20,6 km/h (4 Bft)
08.04.2014 11:56 7,6 C 6,7 C 88 % 1015,2 hPa 0,0 l/m 0 min 0 min 0,0 UV-I 207 W/m 5,1 km/h (1 Bft)
08.04.2014 11:58 7,7 C 6,7 C 89 % 1015,1 hPa 0,0 l/m 0 min 0 min 0,0 UV-I 204 W/m 18,0 km/h (3 Bft)
08.04.2014 12:00 7,7 C 7,2 C 89 % 1015,2 hPa 0,0 l/m 0 min 0 min 0,0 UV-I 216 W/m 7,7 km/h (2 Bft)
08.04.2014 12:02 7,8 C 7,2 C 90 % 1015,1 hPa 0,0 l/m 0 min 0 min 0,0 UV-I 225 W/m 2,6 km/h (1 Bft)
08.04.2014 12:04 7,9 C 7,2 C 90 % 1015,1 hPa 0,0 l/m 0 min 0 min 0,0 UV-I 223 W/m 0,0 km/h (0 Bft)
08.04.2014 12:06 8,1 C 7,8 C 90 % 1015,1 hPa 0,0 l/m 0 min 0 min 0,5 UV-I 234 W/m 12,9 km/h (3 Bft)
08.04.2014 12:08 8,2 C 7,8 C 89 % 1015,0 hPa 0,0 l/m 0 min 0 min 0,6 UV-I 243 W/m 5,1 km/h (1 Bft)
08.04.2014 12:10 8,4 C 7,8 C 89 % 1015,0 hPa 0,0 l/m 0 min 0 min 1,2 UV-I 288 W/m 20,6 km/h (4 Bft)
08.04.2014 12:12 8,6 C 7,8 C 88 % 1015,0 hPa 0,0 l/m 0 min 0 min 0,8 UV-I 288 W/m 20,6 km/h (4 Bft)
08.04.2014 12:14 8,9 C 7,8 C 88 % 1015,1 hPa 0,0 l/m 2 min 0 min 2,0 UV-I 680 W/m 15,4 km/h (3 Bft)
08.04.2014 12:16 9,3 C 8,3 C 88 % 1015,0 hPa 0,0 l/m 2 min 0 min 1,9 UV-I 629 W/m 15,4 km/h (3 Bft)
08.04.2014 12:18 9,7 C 8,9 C 88 % 1015,0 hPa 0,0 l/m 2 min 0 min 1,9 UV-I 624 W/m 18,0 km/h (3 Bft)
08.04.2014 12:20 10,1 C 8,9 C 86 % 1015,0 hPa 0,0 l/m 2 min 0 min 2,0 UV-I 624 W/m 18,0 km/h (3 Bft)
08.04.2014 12:22 10,5 C 8,9 C 85 % 1015,0 hPa 0,0 l/m 2 min 0 min 2,0 UV-I 629 W/m 15,4 km/h (3 Bft)
08.04.2014 12:24 10,8 C 8,9 C 84 % 1014,9 hPa 0,0 l/m 2 min 0 min 2,0 UV-I 635 W/m 23,2 km/h (4 Bft)
08.04.2014 12:26 11,0 C 8,9 C 81 % 1015,0 hPa 0,0 l/m 2 min 0 min 2,0 UV-I 636 W/m 20,6 km/h (4 Bft)
08.04.2014 12:28 11,2 C 8,9 C 80 % 1015,1 hPa 0,0 l/m 2 min 0 min 2,0 UV-I 643 W/m 20,6 km/h (4 Bft)
08.04.2014 12:30 11,3 C 8,9 C 78 % 1015,0 hPa 0,0 l/m 2 min 0 min 2,0 UV-I 652 W/m 23,2 km/h (4 Bft)
08.04.2014 12:32 11,6 C 9,4 C 78 % 1015,1 hPa 0,0 l/m 2 min 0 min 2,1 UV-I 673 W/m 20,6 km/h (4 Bft)
08.04.2014 12:34 11,7 C 9,4 C 76 % 1015,0 hPa 0,0 l/m 2 min 0 min 2,2 UV-I 728 W/m 30,9 km/h (5 Bft)
08.04.2014 12:36 11,7 C 9,4 C 75 % 1015,0 hPa 0,0 l/m 2 min 0 min 0,9 UV-I 680 W/m 18,0 km/h (3 Bft)
08.04.2014 12:38 11,7 C 9,4 C 76 % 1014,9 hPa 0,0 l/m 0 min 0 min 1,1 UV-I 248 W/m 28,3 km/h (4 Bft)
08.04.2014 12:40 11,6 C 8,9 C 75 % 1014,9 hPa 0,0 l/m 0 min 0 min 0,5 UV-I 197 W/m 20,6 km/h (4 Bft)
08.04.2014 12:42 11,4 C 8,3 C 74 % 1015,0 hPa 0,0 l/m 0 min 0 min 0,0 UV-I 171 W/m 23,2 km/h (4 Bft)
08.04.2014 12:44 11,3 C 8,3 C 74 % 1015,1 hPa 0,0 l/m 0 min 0 min 0,0 UV-I 206 W/m 18,0 km/h (3 Bft)
08.04.2014 12:46 11,1 C 8,3 C 73 % 1015,1 hPa 0,0 l/m 0 min 0 min 0,0 UV-I 190 W/m 15,4 km/h (3 Bft)
08.04.2014 12:48 11,1 C 8,3 C 75 % 1015,2 hPa 0,0 l/m 0 min 0 min 0,5 UV-I 190 W/m 12,9 km/h (3 Bft)
08.04.2014 12:50 11,1 C 8,9 C 75 % 1015,2 hPa 0,0 l/m 0 min 0 min 0,8 UV-I 309 W/m 12,9 km/h (3 Bft)
08.04.2014 12:52 11,1 C 8,9 C 75 % 1015,2 hPa 0,0 l/m 0 min 0 min 0,9 UV-I 297 W/m 25,7 km/h (4 Bft)
08.04.2014 12:54 11,2 C 8,9 C 74 % 1015,3 hPa 0,0 l/m 0 min 0 min 1,1 UV-I 330 W/m 30,9 km/h (5 Bft)
08.04.2014 12:56 11,2 C 8,9 C 72 % 1015,2 hPa 0,0 l/m 0 min 0 min 1,0 UV-I 244 W/m 25,7 km/h (4 Bft)
08.04.2014 12:58 11,2 C 8,9 C 72 % 1015,2 hPa 0,0 l/m 0 min 0 min 1,0 UV-I 229 W/m 20,6 km/h (4 Bft)
08.04.2014 13:00 11,2 C 8,9 C 73 % 1015,2 hPa 0,0 l/m 0 min 0 min 1,2 UV-I 336 W/m 18,0 km/h (3 Bft)
08.04.2014 13:02 11,4 C 9,4 C 73 % 1015,3 hPa 0,0 l/m 0 min 0 min 1,1 UV-I 308 W/m 18,0 km/h (3 Bft)
08.04.2014 13:04 11,5 C 9,4 C 73 % 1015,2 hPa 0,0 l/m 0 min 0 min 1,1 UV-I 309 W/m 20,6 km/h (4 Bft)
08.04.2014 13:06 11,6 C 9,4 C 71 % 1015,3 hPa 0,0 l/m 0 min 0 min 1,1 UV-I 322 W/m 20,6 km/h (4 Bft)
08.04.2014 13:08 11,5 C 9,4 C 69 % 1015,3 hPa 0,0 l/m 0 min 0 min 1,2 UV-I 332 W/m 28,3 km/h (4 Bft)
08.04.2014 13:10 11,7 C 9,4 C 71 % 1015,2 hPa 0,0 l/m 0 min 0 min 1,2 UV-I 369 W/m 12,9 km/h (3 Bft)
08.04.2014 13:12 11,8 C 9,4 C 69 % 1015,3 hPa 0,0 l/m 0 min 0 min 1,2 UV-I 297 W/m 12,9 km/h (3 Bft)
08.04.2014 13:14 11,9 C 9,4 C 68 % 1015,3 hPa 0,0 l/m 0 min 0 min 1,1 UV-I 297 W/m 15,4 km/h (3 Bft)
08.04.2014 13:16 12,0 C 10,0 C 69 % 1015,6 hPa 0,0 l/m 0 min 0 min 1,1 UV-I 346 W/m 25,7 km/h (4 Bft)
08.04.2014 13:18 12,0 C 10,0 C 69 % 1015,5 hPa 0,0 l/m 2 min 0 min 1,3 UV-I 413 W/m 20,6 km/h (4 Bft)
08.04.2014 13:20 12,4 C 10,6 C 71 % 1015,4 hPa 0,0 l/m 0 min 0 min 1,3 UV-I 366 W/m 20,6 km/h (4 Bft)
08.04.2014 13:22 12,6 C 10,6 C 68 % 1015,4 hPa 0,0 l/m 0 min 0 min 1,3 UV-I 366 W/m 28,3 km/h (4 Bft)
08.04.2014 13:24 12,6 C 10,6 C 68 % 1015,4 hPa 0,0 l/m 0 min 0 min 0,9 UV-I 299 W/m 10,3 km/h (2 Bft)
08.04.2014 13:26 12,4 C 10,0 C 66 % 1015,5 hPa 0,0 l/m 0 min 0 min 0,9 UV-I 292 W/m 30,9 km/h (5 Bft)
08.04.2014 13:28 12,5 C 10,6 C 68 % 1015,5 hPa 0,0 l/m 2 min 0 min 1,0 UV-I 909 W/m 20,6 km/h (4 Bft)
08.04.2014 13:30 12,6 C 10,6 C 67 % 1015,4 hPa 0,0 l/m 2 min 0 min 1,1 UV-I 909 W/m 12,9 km/h (3 Bft)
08.04.2014 13:32 12,5 C 10,0 C 64 % 1015,4 hPa 0,0 l/m 0 min 0 min 0,6 UV-I 250 W/m 23,2 km/h (4 Bft)
08.04.2014 13:34 12,3 C 10,0 C 65 % 1015,6 hPa 0,0 l/m 0 min 0 min 0,0 UV-I 158 W/m 18,0 km/h (3 Bft)
08.04.2014 13:36 12,1 C 9,4 C 66 % 1015,5 hPa 0,0 l/m 0 min 0 min 0,0 UV-I 111 W/m 15,4 km/h (3 Bft)
08.04.2014 13:38 11,9 C 8,9 C 67 % 1015,6 hPa 0,0 l/m 0 min 2 min 0,0 UV-I 63 W/m 15,4 km/h (3 Bft)
08.04.2014 13:40 11,6 C 8,3 C 68 % 1015,7 hPa 0,0 l/m 0 min 2 min 0,0 UV-I 49 W/m 33,5 km/h (5 Bft)
08.04.2014 13:42 11,2 C 7,8 C 70 % 1015,7 hPa 0,0 l/m 0 min 2 min 0,0 UV-I 47 W/m 23,2 km/h (4 Bft)
08.04.2014 13:44 10,7 C 7,2 C 73 % 1015,8 hPa 0,2 l/m 0 min 2 min 0,0 UV-I 90 W/m 15,4 km/h (3 Bft)
08.04.2014 13:46 10,3 C 7,2 C 76 % 1015,6 hPa 0,0 l/m 0 min 2 min 0,0 UV-I 130 W/m 12,9 km/h (3 Bft)
08.04.2014 13:48 10,0 C 7,2 C 78 % 1015,7 hPa 0,0 l/m 0 min 2 min 0,0 UV-I 171 W/m 5,1 km/h (1 Bft)
08.04.2014 13:50 9,9 C 7,8 C 79 % 1015,8 hPa 0,0 l/m 0 min 0 min 0,5 UV-I 167 W/m 15,4 km/h (3 Bft)
08.04.2014 13:52 9,8 C 7,2 C 75 % 1015,7 hPa 0,0 l/m 0 min 0 min 0,0 UV-I 120 W/m 20,6 km/h (4 Bft)
08.04.2014 13:54 9,9 C 7,2 C 72 % 1015,8 hPa 0,0 l/m 0 min 0 min 0,0 UV-I 98 W/m 23,2 km/h (4 Bft)
08.04.2014 13:56 9,9 C 7,2 C 72 % 1015,7 hPa 0,0 l/m 0 min 0 min 0,0 UV-I 105 W/m 15,4 km/h (3 Bft)
08.04.2014 13:58 9,9 C 7,2 C 73 % 1015,8 hPa 0,0 l/m 0 min 0 min 0,0 UV-I 132 W/m 25,7 km/h (4 Bft)
08.04.2014 14:00 10,0 C 7,8 C 73 % 1015,8 hPa 0,0 l/m 0 min 0 min 0,0 UV-I 181 W/m 7,7 km/h (2 Bft)
08.04.2014 14:02 10,1 C 7,8 C 73 % 1015,7 hPa 0,0 l/m 0 min 2 min 0,0 UV-I 167 W/m 23,2 km/h (4 Bft)
08.04.2014 14:04 10,2 C 7,8 C 71 % 1015,9 hPa 0,0 l/m 0 min 0 min 0,0 UV-I 167 W/m 30,9 km/h (5 Bft)
08.04.2014 14:06 10,3 C 7,8 C 69 % 1015,9 hPa 0,0 l/m 0 min 0 min 0,0 UV-I 211 W/m 33,5 km/h (5 Bft)
08.04.2014 14:08 10,4 C 7,8 C 68 % 1015,9 hPa 0,0 l/m 0 min 0 min 0,8 UV-I 255 W/m 18,0 km/h (3 Bft)
08.04.2014 14:10 10,6 C 7,8 C 67 % 1015,9 hPa 0,0 l/m 0 min 0 min 1,0 UV-I 267 W/m 15,4 km/h (3 Bft)
08.04.2014 14:12 10,8 C 8,3 C 70 % 1016,1 hPa 0,0 l/m 2 min 0 min 2,3 UV-I 758 W/m 15,4 km/h (3 Bft)
08.04.2014 14:14 11,3 C 8,9 C 68 % 1016,1 hPa 0,0 l/m 2 min 0 min 2,3 UV-I 701 W/m 10,3 km/h (2 Bft)
08.04.2014 14:16 11,7 C 9,4 C 66 % 1015,9 hPa 0,0 l/m 2 min 0 min 2,3 UV-I 698 W/m 23,2 km/h (4 Bft)
08.04.2014 14:18 12,0 C 9,4 C 66 % 1016,1 hPa 0,0 l/m 2 min 0 min 2,3 UV-I 707 W/m 23,2 km/h (4 Bft)
08.04.2014 14:20 12,3 C 10,0 C 66 % 1016,1 hPa 0,0 l/m 2 min 0 min 2,3 UV-I 724 W/m 20,6 km/h (4 Bft)
08.04.2014 14:22 12,6 C 10,0 C 64 % 1016,2 hPa 0,0 l/m 2 min 0 min 2,4 UV-I 773 W/m 28,3 km/h (4 Bft)
08.04.2014 14:24 12,7 C 10,0 C 62 % 1016,1 hPa 0,0 l/m 2 min 0 min 2,6 UV-I 846 W/m 38,6 km/h (5 Bft)
08.04.2014 14:26 12,9 C 10,6 C 60 % 1016,1 hPa 0,0 l/m 2 min 0 min 2,6 UV-I 844 W/m 30,9 km/h (5 Bft)
08.04.2014 14:28 12,9 C 10,6 C 61 % 1016,1 hPa 0,0 l/m 2 min 0 min 1,2 UV-I 842 W/m 23,2 km/h (4 Bft)
08.04.2014 14:30 12,9 C 10,0 C 60 % 1015,9 hPa 0,0 l/m 2 min 0 min 1,6 UV-I 842 W/m 30,9 km/h (5 Bft)
08.04.2014 14:32 12,9 C 10,6 C 60 % 1016,1 hPa 0,0 l/m 2 min 0 min 2,1 UV-I 856 W/m 33,5 km/h (5 Bft)
08.04.2014 14:34 12,9 C 10,0 C 58 % 1016,3 hPa 0,0 l/m 2 min 0 min 1,7 UV-I 856 W/m 25,7 km/h (4 Bft)
08.04.2014 14:36 12,7 C 10,0 C 61 % 1016,4 hPa 0,0 l/m 0 min 0 min 0,0 UV-I 130 W/m 18,0 km/h (3 Bft)
08.04.2014 14:38 12,3 C 8,9 C 61 % 1016,4 hPa 0,0 l/m 0 min 2 min 0,0 UV-I 83 W/m 20,6 km/h (4 Bft)
08.04.2014 14:40 11,8 C 8,9 C 64 % 1016,6 hPa 0,0 l/m 0 min 2 min 0,0 UV-I 84 W/m 20,6 km/h (4 Bft)
08.04.2014 14:42 11,4 C 8,3 C 64 % 1016,6 hPa 0,0 l/m 0 min 2 min 0,0 UV-I 84 W/m 23,2 km/h (4 Bft)
08.04.2014 14:44 11,0 C 8,3 C 66 % 1016,7 hPa 0,0 l/m 0 min 2 min 0,0 UV-I 95 W/m 33,5 km/h (5 Bft)
08.04.2014 14:46 10,7 C 8,9 C 68 % 1016,7 hPa 0,0 l/m 0 min 2 min 0,0 UV-I 120 W/m 28,3 km/h (4 Bft)
08.04.2014 14:48 10,4 C 8,9 C 68 % 1016,7 hPa 0,0 l/m 0 min 2 min 0,0 UV-I 155 W/m 25,7 km/h (4 Bft)
08.04.2014 14:50 10,2 C 8,9 C 68 % 1016,8 hPa 0,0 l/m 0 min 0 min 0,0 UV-I 158 W/m 23,2 km/h (4 Bft)
08.04.2014 14:52 10,2 C 8,9 C 69 % 1016,9 hPa 0,0 l/m 0 min 0 min 0,0 UV-I 146 W/m 2,6 km/h (1 Bft)
08.04.2014 14:54 10,1 C 9,4 C 67 % 1016,9 hPa 0,0 l/m 0 min 0 min 0,0 UV-I 218 W/m 36,0 km/h (5 Bft)
08.04.2014 14:56 10,1 C 9,4 C 66 % 1016,9 hPa 0,0 l/m 0 min 0 min 0,5 UV-I 287 W/m 28,3 km/h (4 Bft)
08.04.2014 14:58 10,2 C 9,4 C 67 % 1016,9 hPa 0,0 l/m 0 min 0 min 0,0 UV-I 190 W/m 20,6 km/h (4 Bft)
08.04.2014 15:00 10,2 C 9,4 C 66 % 1016,9 hPa 0,0 l/m 0 min 0 min 0,0 UV-I 127 W/m 18,0 km/h (3 Bft)
08.04.2014 15:02 10,1 C 8,9 C 67 % 1016,9 hPa 0,0 l/m 0 min 2 min 0,0 UV-I 120 W/m 25,7 km/h (4 Bft)
08.04.2014 15:04 10,0 C 8,9 C 66 % 1016,9 hPa 0,0 l/m 0 min 2 min 0,0 UV-I 139 W/m 25,7 km/h (4 Bft)
08.04.2014 15:06 10,0 C 8,9 C 66 % 1016,9 hPa 0,0 l/m 0 min 0 min 0,0 UV-I 213 W/m 23,2 km/h (4 Bft)
08.04.2014 15:08 10,0 C 9,4 C 67 % 1016,9 hPa 0,0 l/m 0 min 0 min 0,0 UV-I 251 W/m 12,9 km/h (3 Bft)
08.04.2014 15:10 10,1 C 9,4 C 67 % 1017,0 hPa 0,0 l/m 0 min 0 min 0,5 UV-I 267 W/m 15,4 km/h (3 Bft)
08.04.2014 15:12 10,2 C 10,0 C 66 % 1016,9 hPa 0,0 l/m 0 min 0 min 0,7 UV-I 288 W/m 33,5 km/h (5 Bft)
08.04.2014 15:14 10,3 C 10,0 C 65 % 1016,9 hPa 0,0 l/m 0 min 0 min 0,7 UV-I 294 W/m 20,6 km/h (4 Bft)
08.04.2014 15:16 10,4 C 10,0 C 65 % 1016,9 hPa 0,0 l/m 0 min 0 min 0,7 UV-I 302 W/m 20,6 km/h (4 Bft)
08.04.2014 15:18 10,6 C 10,6 C 66 % 1017,0 hPa 0,0 l/m 0 min 0 min 2,1 UV-I 325 W/m 10,3 km/h (2 Bft)
08.04.2014 15:20 11,1 C 11,1 C 66 % 1016,9 hPa 0,0 l/m 2 min 0 min 1,5 UV-I 867 W/m 12,9 km/h (3 Bft)
08.04.2014 15:22 11,3 C 11,1 C 64 % 1017,0 hPa 0,0 l/m 0 min 0 min 0,7 UV-I 214 W/m 20,6 km/h (4 Bft)
08.04.2014 15:24 11,2 C 10,6 C 64 % 1017,1 hPa 0,0 l/m 0 min 0 min 0,5 UV-I 202 W/m 18,0 km/h (3 Bft)
08.04.2014 15:26 11,1 C 10,6 C 64 % 1017,2 hPa 0,0 l/m 0 min 0 min 0,0 UV-I 186 W/m 20,6 km/h (4 Bft)
08.04.2014 15:28 10,9 C 10,0 C 64 % 1017,1 hPa 0,0 l/m 0 min 0 min 0,0 UV-I 179 W/m 23,2 km/h (4 Bft)
08.04.2014 15:30 10,7 C 10,0 C 65 % 1017,2 hPa 0,0 l/m 0 min 0 min 0,0 UV-I 179 W/m 23,2 km/h (4 Bft)
08.04.2014 15:32 10,7 C 10,0 C 66 % 1017,1 hPa 0,0 l/m 0 min 0 min 0,6 UV-I 230 W/m 23,2 km/h (4 Bft)
08.04.2014 15:34 10,6 C 10,0 C 67 % 1017,1 hPa 0,0 l/m 0 min 0 min 0,7 UV-I 315 W/m 23,2 km/h (4 Bft)
08.04.2014 15:36 10,7 C 10,0 C 67 % 1017,1 hPa 0,0 l/m 0 min 0 min 0,5 UV-I 251 W/m 18,0 km/h (3 Bft)
08.04.2014 15:38 10,7 C 10,0 C 66 % 1017,2 hPa 0,0 l/m 0 min 0 min 0,0 UV-I 195 W/m 20,6 km/h (4 Bft)
08.04.2014 15:40 10,7 C 10,0 C 67 % 1017,2 hPa 0,0 l/m 0 min 0 min 0,0 UV-I 186 W/m 18,0 km/h (3 Bft)
08.04.2014 15:42 10,6 C 10,0 C 67 % 1017,2 hPa 0,0 l/m 0 min 0 min 0,0 UV-I 197 W/m 7,7 km/h (2 Bft)
08.04.2014 15:44 10,6 C 10,0 C 66 % 1017,3 hPa 0,0 l/m 0 min 0 min 0,0 UV-I 220 W/m 28,3 km/h (4 Bft)
08.04.2014 15:46 10,6 C 10,0 C 66 % 1017,2 hPa 0,0 l/m 0 min 0 min 0,0 UV-I 246 W/m 18,0 km/h (3 Bft)
08.04.2014 15:48 10,6 C 10,0 C 67 % 1017,3 hPa 0,0 l/m 0 min 0 min 0,0 UV-I 236 W/m 10,3 km/h (2 Bft)
08.04.2014 15:50 10,7 C 10,0 C 67 % 1017,3 hPa 0,0 l/m 0 min 0 min 0,0 UV-I 221 W/m 10,3 km/h (2 Bft)
08.04.2014 15:52 10,8 C 10,0 C 67 % 1017,3 hPa 0,0 l/m 0 min 0 min 0,0 UV-I 218 W/m 20,6 km/h (4 Bft)
08.04.2014 15:54 10,8 C 10,0 C 64 % 1017,4 hPa 0,0 l/m 0 min 0 min 0,0 UV-I 218 W/m 25,7 km/h (4 Bft)
08.04.2014 15:56 10,7 C 10,0 C 64 % 1017,3 hPa 0,0 l/m 0 min 0 min 0,0 UV-I 209 W/m 20,6 km/h (4 Bft)
08.04.2014 15:58 10,7 C 10,0 C 62 % 1017,5 hPa 0,0 l/m 0 min 0 min 0,0 UV-I 185 W/m 30,9 km/h (5 Bft)
08.04.2014 16:00 10,6 C 10,0 C 61 % 1017,7 hPa 0,0 l/m 0 min 0 min 0,0 UV-I 172 W/m 23,2 km/h (4 Bft)
08.04.2014 16:02 10,5 C 9,4 C 61 % 1017,6 hPa 0,0 l/m 0 min 0 min 0,0 UV-I 162 W/m 25,7 km/h (4 Bft)
08.04.2014 16:06 10,1 C 8,9 C 63 % 1017,4 hPa 0,0 l/m 0 min 0 min 0,0 UV-I 146 W/m 28,3 km/h (4 Bft)
08.04.2014 16:08 9,9 C 8,9 C 63 % 1017,6 hPa 0,0 l/m 0 min 0 min 0,0 UV-I 176 W/m 28,3 km/h (4 Bft)
08.04.2014 16:10 9,8 C 8,9 C 62 % 1017,5 hPa 0,0 l/m 0 min 0 min 0,0 UV-I 244 W/m 28,3 km/h (4 Bft)
08.04.2014 16:12 9,9 C 9,4 C 63 % 1017,4 hPa 0,0 l/m 0 min 0 min 0,6 UV-I 318 W/m 20,6 km/h (4 Bft)
08.04.2014 16:14 10,1 C 10,0 C 65 % 1017,4 hPa 0,0 l/m 2 min 0 min 1,4 UV-I 719 W/m 18,0 km/h (3 Bft)
08.04.2014 16:16 10,6 C 10,6 C 66 % 1017,4 hPa 0,0 l/m 2 min 0 min 1,3 UV-I 610 W/m 12,9 km/h (3 Bft)
08.04.2014 16:18 11,1 C 10,6 C 64 % 1017,4 hPa 0,0 l/m 2 min 0 min 1,3 UV-I 594 W/m 15,4 km/h (3 Bft)
08.04.2014 16:20 11,4 C 10,6 C 64 % 1017,5 hPa 0,0 l/m 2 min 0 min 1,2 UV-I 582 W/m 15,4 km/h (3 Bft)
08.04.2014 16:22 11,4 C 10,6 C 63 % 1017,4 hPa 0,0 l/m 2 min 0 min 1,2 UV-I 587 W/m 12,9 km/h (3 Bft)
08.04.2014 16:24 11,7 C 10,6 C 63 % 1017,5 hPa 0,0 l/m 2 min 0 min 1,2 UV-I 580 W/m 23,2 km/h (4 Bft)
08.04.2014 16:26 11,8 C 11,1 C 63 % 1017,4 hPa 0,0 l/m 2 min 0 min 1,2 UV-I 633 W/m 15,4 km/h (3 Bft)
08.04.2014 16:28 11,9 C 11,7 C 62 % 1017,4 hPa 0,0 l/m 2 min 0 min 1,2 UV-I 671 W/m 23,2 km/h (4 Bft)
08.04.2014 16:30 12,0 C 11,7 C 62 % 1017,4 hPa 0,0 l/m 2 min 0 min 1,2 UV-I 677 W/m 25,7 km/h (4 Bft)
08.04.2014 16:32 12,2 C 11,7 C 63 % 1017,4 hPa 0,0 l/m 2 min 0 min 0,6 UV-I 359 W/m 10,3 km/h (2 Bft)
08.04.2014 16:34 12,1 C 11,7 C 62 % 1017,4 hPa 0,0 l/m 2 min 0 min 0,7 UV-I 338 W/m 23,2 km/h (4 Bft)
08.04.2014 16:36 11,9 C 11,7 C 62 % 1017,5 hPa 0,0 l/m 2 min 0 min 1,2 UV-I 338 W/m 18,0 km/h (3 Bft)
08.04.2014 16:38 12,1 C 12,2 C 65 % 1017,4 hPa 0,0 l/m 2 min 0 min 1,1 UV-I 749 W/m 10,3 km/h (2 Bft)
08.04.2014 16:40 12,2 C 12,2 C 62 % 1017,4 hPa 0,0 l/m 2 min 0 min 1,1 UV-I 749 W/m 18,0 km/h (3 Bft)
08.04.2014 16:42 12,2 C 12,2 C 63 % 1017,4 hPa 0,0 l/m 2 min 0 min 0,9 UV-I 749 W/m 20,6 km/h (4 Bft)
08.04.2014 16:44 12,1 C 11,7 C 61 % 1017,5 hPa 0,0 l/m 0 min 0 min 0,0 UV-I 232 W/m 28,3 km/h (4 Bft)
08.04.2014 16:46 11,7 C 11,1 C 61 % 1017,4 hPa 0,0 l/m 0 min 0 min 0,0 UV-I 199 W/m 38,6 km/h (5 Bft)
08.04.2014 16:48 11,5 C 10,6 C 62 % 1017,4 hPa 0,0 l/m 0 min 0 min 0,0 UV-I 178 W/m 15,4 km/h (3 Bft)
08.04.2014 16:50 11,3 C 10,6 C 63 % 1017,5 hPa 0,0 l/m 0 min 0 min 0,0 UV-I 158 W/m 12,9 km/h (3 Bft)
08.04.2014 16:52 11,1 C 10,6 C 64 % 1017,4 hPa 0,0 l/m 0 min 0 min 0,0 UV-I 151 W/m 7,7 km/h (2 Bft)
08.04.2014 16:56 11,0 C 10,0 C 62 % 1017,5 hPa 0,0 l/m 0 min 0 min 0,0 UV-I 146 W/m 18,0 km/h (3 Bft)
08.04.2014 16:58 10,9 C 10,0 C 63 % 1017,5 hPa 0,0 l/m 0 min 0 min 0,0 UV-I 123 W/m 28,3 km/h (4 Bft)
08.04.2014 17:00 10,8 C 10,0 C 62 % 1017,4 hPa 0,2 l/m 0 min 0 min 0,0 UV-I 84 W/m 33,5 km/h (5 Bft)
08.04.2014 17:02 10,8 C 9,4 C 62 % 1017,5 hPa 0,0 l/m 0 min 0 min 0,0 UV-I 63 W/m 28,3 km/h (4 Bft)
08.04.2014 17:06 10,5 C 8,3 C 67 % 1017,9 hPa 0,0 l/m 0 min 2 min 0,0 UV-I 62 W/m 28,3 km/h (4 Bft)
08.04.2014 17:08 10,0 C 7,2 C 70 % 1017,9 hPa 0,0 l/m 2 min 2 min 0,0 UV-I 292 W/m 15,4 km/h (3 Bft)
08.04.2014 17:10 9,5 C 7,2 C 74 % 1018,0 hPa 0,0 l/m 0 min 2 min 0,0 UV-I 250 W/m 10,3 km/h (2 Bft)
08.04.2014 17:12 9,2 C 7,2 C 78 % 1018,0 hPa 0,0 l/m 0 min 2 min 0,0 UV-I 167 W/m 7,7 km/h (2 Bft)
08.04.2014 17:14 8,9 C 7,2 C 78 % 1018,0 hPa 0,0 l/m 0 min 0 min 0,0 UV-I 144 W/m 28,3 km/h (4 Bft)
08.04.2014 17:16 8,9 C 7,2 C 79 % 1018,0 hPa 0,0 l/m 0 min 0 min 0,0 UV-I 162 W/m 10,3 km/h (2 Bft)
08.04.2014 17:18 8,9 C 7,2 C 80 % 1018,0 hPa 0,0 l/m 0 min 0 min 0,0 UV-I 162 W/m 10,3 km/h (2 Bft)
08.04.2014 17:20 9,1 C 7,8 C 80 % 1018,0 hPa 0,0 l/m 2 min 0 min 0,0 UV-I 483 W/m 12,9 km/h (3 Bft)
08.04.2014 17:22 9,3 C 7,8 C 79 % 1017,9 hPa 0,0 l/m 2 min 0 min 0,0 UV-I 438 W/m 5,1 km/h (1 Bft)
08.04.2014 17:24 9,6 C 7,8 C 78 % 1018,0 hPa 0,0 l/m 2 min 0 min 0,0 UV-I 415 W/m 10,3 km/h (2 Bft)
08.04.2014 17:26 9,8 C 7,8 C 77 % 1018,0 hPa 0,0 l/m 2 min 0 min 0,0 UV-I 396 W/m 0,0 km/h (0 Bft)
08.04.2014 17:28 10,2 C 8,3 C 79 % 1018,0 hPa 0,0 l/m 2 min 0 min 0,0 UV-I 388 W/m 7,7 km/h (2 Bft)
08.04.2014 17:30 10,3 C 8,3 C 77 % 1018,1 hPa 0,0 l/m 2 min 0 min 0,0 UV-I 348 W/m 7,7 km/h (2 Bft)
08.04.2014 17:32 10,3 C 7,8 C 75 % 1018,0 hPa 0,0 l/m 0 min 0 min 0,0 UV-I 62 W/m 10,3 km/h (2 Bft)
08.04.2014 17:34 10,0 C 7,8 C 75 % 1018,0 hPa 0,0 l/m 0 min 0 min 0,0 UV-I 130 W/m 7,7 km/h (2 Bft)
08.04.2014 17:36 9,9 C 7,8 C 75 % 1018,0 hPa 0,0 l/m 0 min 0 min 0,0 UV-I 91 W/m 0,0 km/h (0 Bft)
08.04.2014 17:44 9,3 C 7,8 C 77 % 1018,1 hPa 0,0 l/m 0 min 0 min 0,0 UV-I 100 W/m 12,9 km/h (3 Bft)
08.04.2014 17:46 9,3 C 7,8 C 76 % 1018,1 hPa 0,0 l/m 0 min 0 min 0,0 UV-I 109 W/m 5,1 km/h (1 Bft)
08.04.2014 17:48 9,3 C 7,8 C 76 % 1018,2 hPa 0,0 l/m 0 min 0 min 0,0 UV-I 116 W/m 15,4 km/h (3 Bft)
08.04.2014 17:50 9,3 C 8,3 C 76 % 1018,2 hPa 0,0 l/m 0 min 0 min 0,0 UV-I 137 W/m 0,0 km/h (0 Bft)
08.04.2014 17:52 9,3 C 8,3 C 75 % 1018,3 hPa 0,0 l/m 0 min 0 min 0,0 UV-I 148 W/m 10,3 km/h (2 Bft)
08.04.2014 17:54 9,4 C 8,9 C 76 % 1018,2 hPa 0,0 l/m 0 min 0 min 0,0 UV-I 153 W/m 5,1 km/h (1 Bft)
08.04.2014 17:56 9,5 C 8,9 C 75 % 1018,2 hPa 0,0 l/m 0 min 0 min 0,0 UV-I 149 W/m 7,7 km/h (2 Bft)
08.04.2014 17:58 9,6 C 8,9 C 75 % 1018,3 hPa 0,0 l/m 0 min 0 min 0,0 UV-I 144 W/m 12,9 km/h (3 Bft)
08.04.2014 18:00 9,6 C 8,9 C 73 % 1018,3 hPa 0,0 l/m 0 min 0 min 0,0 UV-I 128 W/m 10,3 km/h (2 Bft)
08.04.2014 18:02 9,6 C 8,9 C 72 % 1018,2 hPa 0,0 l/m 0 min 0 min 0,0 UV-I 90 W/m 20,6 km/h (4 Bft)
08.04.2014 18:06 9,6 C 8,3 C 72 % 1018,3 hPa 0,0 l/m 0 min 0 min 0,0 UV-I 62 W/m 20,6 km/h (4 Bft)
08.04.2014 18:08 9,5 C 8,3 C 73 % 1018,3 hPa 0,0 l/m 0 min 0 min 0,0 UV-I 74 W/m 7,7 km/h (2 Bft)
08.04.2014 18:10 9,6 C 8,3 C 73 % 1018,3 hPa 0,0 l/m 0 min 0 min 0,0 UV-I 84 W/m 7,7 km/h (2 Bft)
08.04.2014 18:12 9,5 C 8,3 C 73 % 1018,3 hPa 0,0 l/m 0 min 0 min 0,0 UV-I 84 W/m 12,9 km/h (3 Bft)
08.04.2014 18:14 9,6 C 8,9 C 73 % 1018,4 hPa 0,0 l/m 0 min 0 min 0,0 UV-I 83 W/m 10,3 km/h (2 Bft)
08.04.2014 18:16 9,6 C 8,9 C 72 % 1018,4 hPa 0,0 l/m 0 min 0 min 0,0 UV-I 84 W/m 12,9 km/h (3 Bft)
08.04.2014 18:18 9,7 C 8,9 C 71 % 1018,4 hPa 0,0 l/m 0 min 0 min 0,0 UV-I 93 W/m 12,9 km/h (3 Bft)
08.04.2014 18:20 9,7 C 8,9 C 71 % 1018,4 hPa 0,0 l/m 0 min 2 min 0,0 UV-I 113 W/m 15,4 km/h (3 Bft)
08.04.2014 18:22 9,7 C 8,9 C 72 % 1018,4 hPa 0,0 l/m 0 min 0 min 0,0 UV-I 127 W/m 10,3 km/h (2 Bft)
08.04.2014 18:24 9,8 C 8,9 C 71 % 1018,5 hPa 0,0 l/m 0 min 0 min 0,0 UV-I 100 W/m 7,7 km/h (2 Bft)
08.04.2014 18:26 9,8 C 8,9 C 71 % 1018,5 hPa 0,0 l/m 0 min 0 min 0,0 UV-I 83 W/m 23,2 km/h (4 Bft)
08.04.2014 18:28 9,8 C 8,9 C 70 % 1018,6 hPa 0,0 l/m 0 min 0 min 0,0 UV-I 76 W/m 7,7 km/h (2 Bft)
08.04.2014 18:30 9,7 C 8,9 C 70 % 1018,6 hPa 0,0 l/m 0 min 0 min 0,0 UV-I 63 W/m 23,2 km/h (4 Bft)
08.04.2014 18:32 9,7 C 8,3 C 70 % 1018,6 hPa 0,0 l/m 0 min 0 min 0,0 UV-I 63 W/m 23,2 km/h (4 Bft)
08.04.2014 18:34 9,7 C 8,3 C 70 % 1018,7 hPa 0,0 l/m 0 min 0 min 0,0 UV-I 83 W/m 18,0 km/h (3 Bft)
08.04.2014 18:36 9,6 C 8,3 C 71 % 1018,7 hPa 0,0 l/m 2 min 0 min 0,0 UV-I 192 W/m 7,7 km/h (2 Bft)
08.04.2014 18:38 9,8 C 8,9 C 70 % 1018,7 hPa 0,0 l/m 2 min 0 min 0,0 UV-I 276 W/m 25,7 km/h (4 Bft)
08.04.2014 18:40 10,0 C 8,9 C 71 % 1018,7 hPa 0,0 l/m 2 min 0 min 0,0 UV-I 223 W/m 12,9 km/h (3 Bft)
08.04.2014 18:42 10,1 C 8,9 C 70 % 1018,7 hPa 0,0 l/m 0 min 0 min 0,0 UV-I 69 W/m 10,3 km/h (2 Bft)
08.04.2014 18:44 10,2 C 8,9 C 70 % 1018,7 hPa 0,0 l/m 0 min 0 min 0,0 UV-I 81 W/m 10,3 km/h (2 Bft)
08.04.2014 18:46 10,2 C 8,9 C 70 % 1018,7 hPa 0,0 l/m 0 min 0 min 0,0 UV-I 120 W/m 5,1 km/h (1 Bft)
08.04.2014 18:48 10,1 C 8,9 C 69 % 1018,7 hPa 0,0 l/m 0 min 0 min 0,0 UV-I 70 W/m 18,0 km/h (3 Bft)
08.04.2014 18:50 10,0 C 8,9 C 70 % 1018,7 hPa 0,0 l/m 0 min 0 min 0,0 UV-I 53 W/m 20,6 km/h (4 Bft)
08.04.2014 18:52 10,0 C 8,3 C 69 % 1018,8 hPa 0,0 l/m 0 min 0 min 0,0 UV-I 53 W/m 12,9 km/h (3 Bft)
08.04.2014 18:54 9,9 C 8,9 C 69 % 1018,8 hPa 0,0 l/m 0 min 0 min 0,0 UV-I 49 W/m 15,4 km/h (3 Bft)
08.04.2014 18:56 9,9 C 8,3 C 68 % 1018,8 hPa 0,0 l/m 0 min 0 min 0,0 UV-I 49 W/m 12,9 km/h (3 Bft)
08.04.2014 18:58 9,9 C 8,3 C 68 % 1018,8 hPa 0,0 l/m 0 min 0 min 0,0 UV-I 49 W/m 20,6 km/h (4 Bft)
08.04.2014 19:00 9,9 C 8,3 C 69 % 1018,9 hPa 0,0 l/m 0 min 0 min 0,0 UV-I 51 W/m 15,4 km/h (3 Bft)
08.04.2014 19:02 9,9 C 8,3 C 69 % 1018,8 hPa 0,0 l/m 0 min 0 min 0,0 UV-I 49 W/m 10,3 km/h (2 Bft)
08.04.2014 19:06 9,8 C 8,3 C 68 % 1018,8 hPa 0,0 l/m 0 min 0 min 0,0 UV-I 35 W/m 12,9 km/h (3 Bft)
08.04.2014 19:08 9,7 C 8,3 C 69 % 1018,9 hPa 0,0 l/m 0 min 0 min 0,0 UV-I 33 W/m 15,4 km/h (3 Bft)
08.04.2014 19:10 9,6 C 8,3 C 68 % 1018,9 hPa 0,0 l/m 0 min 0 min 0,0 UV-I 32 W/m 7,7 km/h (2 Bft)
08.04.2014 19:12 9,6 C 7,8 C 70 % 1018,9 hPa 0,0 l/m 0 min 0 min 0,0 UV-I 32 W/m 2,6 km/h (1 Bft)
08.04.2014 19:14 9,5 C 7,8 C 69 % 1018,9 hPa 0,0 l/m 0 min 0 min 0,0 UV-I 28 W/m 12,9 km/h (3 Bft)
08.04.2014 19:16 9,4 C 7,8 C 70 % 1018,9 hPa 0,0 l/m 0 min 0 min 0,0 UV-I 28 W/m 18,0 km/h (3 Bft)
08.04.2014 19:18 9,3 C 7,8 C 70 % 1018,9 hPa 0,0 l/m 0 min 0 min 0,0 UV-I 26 W/m 7,7 km/h (2 Bft)
08.04.2014 19:20 9,2 C 7,8 C 71 % 1018,9 hPa 0,0 l/m 0 min 0 min 0,0 UV-I 28 W/m 18,0 km/h (3 Bft)
08.04.2014 19:22 9,2 C 7,8 C 71 % 1018,9 hPa 0,0 l/m 0 min 0 min 0,0 UV-I 28 W/m 12,9 km/h (3 Bft)
08.04.2014 19:24 9,1 C 7,8 C 72 % 1018,9 hPa 0,0 l/m 0 min 0 min 0,0 UV-I 23 W/m 0,0 km/h (0 Bft)
08.04.2014 19:26 9,1 C 7,2 C 72 % 1018,9 hPa 0,0 l/m 0 min 0 min 0,0 UV-I 21 W/m 2,6 km/h (1 Bft)
08.04.2014 19:28 9,0 C 7,2 C 72 % 1019,0 hPa 0,0 l/m 0 min 0 min 0,0 UV-I 21 W/m 0,0 km/h (0 Bft)
08.04.2014 19:30 8,9 C 7,2 C 73 % 1019,0 hPa 0,0 l/m 0 min 0 min 0,0 UV-I 19 W/m 0,0 km/h (0 Bft)
08.04.2014 19:32 8,8 C 7,2 C 73 % 1019,0 hPa 0,0 l/m 0 min 0 min 0,0 UV-I 23 W/m 0,0 km/h (0 Bft)
08.04.2014 19:34 8,7 C 7,2 C 73 % 1018,9 hPa 0,0 l/m 0 min 0 min 0,0 UV-I 23 W/m 7,7 km/h (2 Bft)
08.04.2014 19:36 8,8 C 7,2 C 73 % 1019,0 hPa 0,0 l/m 0 min 0 min 0,0 UV-I 28 W/m 0,0 km/h (0 Bft)
08.04.2014 19:38 8,8 C 7,2 C 74 % 1019,0 hPa 0,0 l/m 0 min 0 min 0,0 UV-I 37 W/m 0,0 km/h (0 Bft)
08.04.2014 19:40 8,8 C 7,2 C 74 % 1019,1 hPa 0,0 l/m 0 min 0 min 0,0 UV-I 30 W/m 10,3 km/h (2 Bft)
08.04.2014 19:42 8,8 C 7,2 C 74 % 1019,2 hPa 0,0 l/m 0 min 0 min 0,0 UV-I 25 W/m 10,3 km/h (2 Bft)
08.04.2014 19:44 8,8 C 7,2 C 73 % 1019,1 hPa 0,0 l/m 0 min 0 min 0,0 UV-I 23 W/m 15,4 km/h (3 Bft)
08.04.2014 19:46 8,9 C 7,2 C 73 % 1019,2 hPa 0,0 l/m 0 min 0 min 0,0 UV-I 23 W/m 10,3 km/h (2 Bft)
08.04.2014 19:48 8,9 C 7,2 C 73 % 1019,2 hPa 0,0 l/m 0 min 0 min 0,0 UV-I 23 W/m 20,6 km/h (4 Bft)
08.04.2014 19:50 8,9 C 7,8 C 71 % 1019,2 hPa 0,0 l/m 0 min 0 min 0,0 UV-I 19 W/m 25,7 km/h (4 Bft)
08.04.2014 19:52 9,0 C 7,2 C 71 % 1019,2 hPa 0,0 l/m 0 min 0 min 0,0 UV-I 14 W/m 15,4 km/h (3 Bft)
08.04.2014 19:54 9,1 C 7,2 C 70 % 1019,2 hPa 0,0 l/m 0 min 0 min 0,0 UV-I 12 W/m 10,3 km/h (2 Bft)
08.04.2014 19:56 9,1 C 7,2 C 70 % 1019,2 hPa 0,0 l/m 0 min 0 min 0,0 UV-I 12 W/m 30,9 km/h (5 Bft)
08.04.2014 19:58 9,1 C 7,2 C 69 % 1019,2 hPa 0,0 l/m 0 min 0 min 0,0 UV-I 11 W/m 25,7 km/h (4 Bft)
08.04.2014 20:00 9,1 C 7,2 C 69 % 1019,3 hPa 0,0 l/m 0 min 0 min 0,0 UV-I 9 W/m 12,9 km/h (3 Bft)
08.04.2014 20:02 9,1 C 7,2 C 68 % 1019,3 hPa 0,0 l/m 0 min 0 min 0,0 UV-I 9 W/m 10,3 km/h (2 Bft)
08.04.2014 20:06 9,1 C 7,2 C 68 % 1019,3 hPa 0,0 l/m 0 min 0 min 0,0 UV-I 7 W/m 23,2 km/h (4 Bft)
08.04.2014 20:08 9,1 C 7,2 C 68 % 1019,3 hPa 0,0 l/m 0 min 0 min 0,0 UV-I 7 W/m 12,9 km/h (3 Bft)
08.04.2014 20:10 9,1 C 7,2 C 68 % 1019,3 hPa 0,0 l/m 0 min 0 min 0,0 UV-I 7 W/m 5,1 km/h (1 Bft)
08.04.2014 20:12 9,1 C 7,2 C 68 % 1019,4 hPa 0,0 l/m 0 min 0 min 0,0 UV-I 5 W/m 5,1 km/h (1 Bft)
08.04.2014 20:14 9,1 C 7,2 C 68 % 1019,4 hPa 0,0 l/m 0 min 0 min 0,0 UV-I 5 W/m 7,7 km/h (2 Bft)
08.04.2014 20:16 9,0 C 7,2 C 69 % 1019,4 hPa 0,0 l/m 0 min 0 min 0,0 UV-I 5 W/m 18,0 km/h (3 Bft)
08.04.2014 20:18 9,0 C 7,2 C 69 % 1019,5 hPa 0,0 l/m 0 min 0 min 0,0 UV-I 5 W/m 2,6 km/h (1 Bft)
08.04.2014 20:20 8,9 C 7,2 C 69 % 1019,6 hPa 0,0 l/m 0 min 0 min 0,0 UV-I 0 W/m 12,9 km/h (3 Bft)
08.04.2014 20:22 8,9 C 7,2 C 69 % 1019,7 hPa 0,0 l/m 0 min 0 min 0,0 UV-I 0 W/m 28,3 km/h (4 Bft)
08.04.2014 20:24 8,9 C 7,2 C 69 % 1019,8 hPa 0,0 l/m 0 min 0 min 0,0 UV-I 0 W/m 15,4 km/h (3 Bft)
08.04.2014 20:26 8,9 C 7,2 C 70 % 1020,0 hPa 0,0 l/m 0 min 0 min 0,0 UV-I 0 W/m 10,3 km/h (2 Bft)
08.04.2014 20:28 8,9 C 7,2 C 70 % 1020,0 hPa 0,0 l/m 0 min 0 min 0,0 UV-I 0 W/m 23,2 km/h (4 Bft)
08.04.2014 20:30 8,9 C 7,2 C 71 % 1020,3 hPa 0,0 l/m 0 min 0 min 0,0 UV-I 0 W/m 20,6 km/h (4 Bft)
08.04.2014 20:32 8,8 C 7,2 C 72 % 1020,6 hPa 0,0 l/m 0 min 0 min 0,0 UV-I 0 W/m 38,6 km/h (5 Bft)
08.04.2014 20:34 8,6 C 6,7 C 73 % 1020,6 hPa 0,0 l/m 0 min 2 min 0,0 UV-I 0 W/m 30,9 km/h (5 Bft)
08.04.2014 20:36 8,3 C 6,1 C 75 % 1020,7 hPa 0,0 l/m 0 min 2 min 0,0 UV-I 0 W/m 23,2 km/h (4 Bft)
08.04.2014 20:38 8,0 C 5,6 C 78 % 1020,8 hPa 0,0 l/m 0 min 2 min 0,0 UV-I 0 W/m 18,0 km/h (3 Bft)
08.04.2014 20:40 7,7 C 5,0 C 80 % 1020,8 hPa 0,0 l/m 0 min 2 min 0,0 UV-I 0 W/m 23,2 km/h (4 Bft)
08.04.2014 20:42 7,4 C 5,0 C 82 % 1020,8 hPa 0,2 l/m 0 min 2 min 0,0 UV-I 0 W/m 18,0 km/h (3 Bft)
08.04.2014 20:44 7,2 C 5,0 C 83 % 1020,8 hPa 0,0 l/m 0 min 2 min 0,0 UV-I 0 W/m 0,0 km/h (0 Bft)
08.04.2014 20:46 6,9 C 5,0 C 84 % 1020,8 hPa 0,0 l/m 0 min 2 min 0,0 UV-I 0 W/m 2,6 km/h (1 Bft)
08.04.2014 20:48 6,8 C 5,0 C 86 % 1020,8 hPa 0,0 l/m 0 min 0 min 0,0 UV-I 0 W/m 5,1 km/h (1 Bft)
08.04.2014 20:50 6,8 C 5,0 C 86 % 1020,8 hPa 0,0 l/m 0 min 0 min 0,0 UV-I 0 W/m 0,0 km/h (0 Bft)
08.04.2014 20:52 6,7 C 5,0 C 87 % 1020,8 hPa 0,0 l/m 0 min 2 min 0,0 UV-I 0 W/m 0,0 km/h (0 Bft)
08.04.2014 20:54 6,7 C 5,0 C 87 % 1020,8 hPa 0,0 l/m 0 min 0 min 0,0 UV-I 0 W/m 2,6 km/h (1 Bft)
08.04.2014 20:56 6,6 C 5,0 C 88 % 1020,8 hPa 0,0 l/m 0 min 2 min 0,0 UV-I 0 W/m 0,0 km/h (0 Bft)
08.04.2014 20:58 6,6 C 5,0 C 88 % 1020,8 hPa 0,0 l/m 0 min 0 min 0,0 UV-I 0 W/m 0,0 km/h (0 Bft)
08.04.2014 21:00 6,6 C 5,0 C 88 % 1020,8 hPa 0,0 l/m 0 min 0 min 0,0 UV-I 0 W/m 0,0 km/h (0 Bft)
08.04.2014 21:02 6,6 C 5,0 C 88 % 1020,8 hPa 0,0 l/m 0 min 0 min 0,0 UV-I 0 W/m 0,0 km/h (0 Bft)
08.04.2014 21:06 6,6 C 5,0 C 88 % 1020,8 hPa 0,0 l/m 0 min 0 min 0,0 UV-I 0 W/m 0,0 km/h (0 Bft)
08.04.2014 21:08 6,6 C 5,0 C 88 % 1020,8 hPa 0,0 l/m 0 min 0 min 0,0 UV-I 0 W/m 2,6 km/h (1 Bft)
08.04.2014 21:10 6,6 C 5,0 C 88 % 1020,9 hPa 0,0 l/m 0 min 0 min 0,0 UV-I 0 W/m 0,0 km/h (0 Bft)
08.04.2014 21:12 6,6 C 5,0 C 88 % 1021,0 hPa 0,0 l/m 0 min 0 min 0,0 UV-I 0 W/m 0,0 km/h (0 Bft)
08.04.2014 21:14 6,6 C 5,0 C 88 % 1020,9 hPa 0,0 l/m 0 min 0 min 0,0 UV-I 0 W/m 0,0 km/h (0 Bft)
08.04.2014 21:16 6,6 C 5,0 C 88 % 1020,9 hPa 0,0 l/m 0 min 0 min 0,0 UV-I 0 W/m 0,0 km/h (0 Bft)
08.04.2014 21:18 6,6 C 4,4 C 88 % 1020,9 hPa 0,0 l/m 0 min 0 min 0,0 UV-I 0 W/m 0,0 km/h (0 Bft)
08.04.2014 21:20 6,5 C 4,4 C 88 % 1020,9 hPa 0,0 l/m 0 min 0 min 0,0 UV-I 0 W/m 0,0 km/h (0 Bft)
08.04.2014 21:22 6,4 C 4,4 C 88 % 1021,0 hPa 0,0 l/m 0 min 0 min 0,0 UV-I 0 W/m 2,6 km/h (1 Bft)
08.04.2014 21:24 6,4 C 4,4 C 88 % 1021,1 hPa 0,0 l/m 0 min 0 min 0,0 UV-I 0 W/m 0,0 km/h (0 Bft)
08.04.2014 21:26 6,4 C 4,4 C 88 % 1021,3 hPa 0,0 l/m 0 min 0 min 0,0 UV-I 0 W/m 0,0 km/h (0 Bft)
08.04.2014 21:28 6,4 C 5,0 C 88 % 1021,4 hPa 0,0 l/m 0 min 0 min 0,0 UV-I 0 W/m 2,6 km/h (1 Bft)
08.04.2014 21:30 6,5 C 5,0 C 88 % 1021,5 hPa 0,0 l/m 0 min 0 min 0,0 UV-I 0 W/m 0,0 km/h (0 Bft)
08.04.2014 21:32 6,6 C 5,0 C 88 % 1021,5 hPa 0,0 l/m 0 min 0 min 0,0 UV-I 0 W/m 15,4 km/h (3 Bft)
08.04.2014 21:34 6,7 C 5,0 C 88 % 1021,6 hPa 0,0 l/m 0 min 0 min 0,0 UV-I 0 W/m 18,0 km/h (3 Bft)
08.04.2014 21:36 6,7 C 5,0 C 87 % 1021,7 hPa 0,0 l/m 0 min 0 min 0,0 UV-I 0 W/m 10,3 km/h (2 Bft)
08.04.2014 21:38 6,8 C 5,0 C 87 % 1021,9 hPa 0,0 l/m 0 min 0 min 0,0 UV-I 0 W/m 15,4 km/h (3 Bft)
08.04.2014 21:40 6,8 C 5,0 C 87 % 1022,0 hPa 0,0 l/m 0 min 2 min 0,0 UV-I 0 W/m 25,7 km/h (4 Bft)
08.04.2014 21:42 6,9 C 5,0 C 86 % 1022,1 hPa 0,0 l/m 0 min 2 min 0,0 UV-I 0 W/m 15,4 km/h (3 Bft)
08.04.2014 21:44 6,8 C 5,0 C 86 % 1022,3 hPa 0,0 l/m 0 min 2 min 0,0 UV-I 0 W/m 20,6 km/h (4 Bft)
08.04.2014 21:46 6,7 C 4,4 C 85 % 1022,2 hPa 0,0 l/m 0 min 2 min 0,0 UV-I 0 W/m 20,6 km/h (4 Bft)
08.04.2014 21:48 6,5 C 4,4 C 86 % 1022,3 hPa 0,2 l/m 0 min 2 min 0,0 UV-I 0 W/m 12,9 km/h (3 Bft)
08.04.2014 21:50 6,3 C 4,4 C 86 % 1022,5 hPa 0,0 l/m 0 min 2 min 0,0 UV-I 0 W/m 18,0 km/h (3 Bft)
08.04.2014 21:52 6,1 C 4,4 C 86 % 1022,5 hPa 0,2 l/m 0 min 2 min 0,0 UV-I 0 W/m 12,9 km/h (3 Bft)
08.04.2014 21:54 5,9 C 4,4 C 87 % 1022,4 hPa 0,0 l/m 0 min 2 min 0,0 UV-I 0 W/m 20,6 km/h (4 Bft)
08.04.2014 21:56 5,8 C 4,4 C 88 % 1022,4 hPa 0,2 l/m 0 min 2 min 0,0 UV-I 0 W/m 12,9 km/h (3 Bft)
08.04.2014 21:58 5,7 C 4,4 C 88 % 1022,0 hPa 0,0 l/m 0 min 2 min 0,0 UV-I 0 W/m 10,3 km/h (2 Bft)
08.04.2014 22:00 5,6 C 4,4 C 89 % 1021,9 hPa 0,0 l/m 0 min 2 min 0,0 UV-I 0 W/m 10,3 km/h (2 Bft)
08.04.2014 22:02 5,6 C 4,4 C 89 % 1021,7 hPa 0,0 l/m 0 min 2 min 0,0 UV-I 0 W/m 2,6 km/h (1 Bft)
08.04.2014 22:04 5,5 C 4,4 C 90 % 1021,6 hPa 0,0 l/m 0 min 2 min 0,0 UV-I 0 W/m 0,0 km/h (0 Bft)
08.04.2014 22:06 5,5 C 4,4 C 90 % 1021,6 hPa 0,0 l/m 0 min 0 min 0,0 UV-I 0 W/m 7,7 km/h (2 Bft)
08.04.2014 22:08 5,4 C 4,4 C 91 % 1021,6 hPa 0,0 l/m 0 min 0 min 0,0 UV-I 0 W/m 10,3 km/h (2 Bft)
08.04.2014 22:10 5,4 C 4,4 C 91 % 1021,6 hPa 0,0 l/m 0 min 0 min 0,0 UV-I 0 W/m 7,7 km/h (2 Bft)
08.04.2014 22:12 5,5 C 4,4 C 91 % 1021,5 hPa 0,0 l/m 0 min 2 min 0,0 UV-I 0 W/m 2,6 km/h (1 Bft)
08.04.2014 22:14 5,4 C 4,4 C 91 % 1021,5 hPa 0,0 l/m 0 min 0 min 0,0 UV-I 0 W/m 7,7 km/h (2 Bft)
08.04.2014 22:16 5,5 C 4,4 C 91 % 1021,5 hPa 0,0 l/m 0 min 0 min 0,0 UV-I 0 W/m 0,0 km/h (0 Bft)
08.04.2014 22:18 5,5 C 4,4 C 91 % 1021,6 hPa 0,0 l/m 0 min 2 min 0,0 UV-I 0 W/m 5,1 km/h (1 Bft)
08.04.2014 22:20 5,5 C 4,4 C 91 % 1021,6 hPa 0,0 l/m 0 min 2 min 0,0 UV-I 0 W/m 0,0 km/h (0 Bft)
08.04.2014 22:22 5,6 C 4,4 C 91 % 1021,7 hPa 0,2 l/m 0 min 2 min 0,0 UV-I 0 W/m 0,0 km/h (0 Bft)
08.04.2014 22:24 5,6 C 4,4 C 91 % 1021,9 hPa 0,0 l/m 0 min 2 min 0,0 UV-I 0 W/m 12,9 km/h (3 Bft)
08.04.2014 22:26 5,6 C 3,9 C 91 % 1022,0 hPa 0,6 l/m 0 min 2 min 0,0 UV-I 0 W/m 25,7 km/h (4 Bft)
08.04.2014 22:28 5,6 C 3,9 C 92 % 1022,0 hPa 0,0 l/m 0 min 2 min 0,0 UV-I 0 W/m 23,2 km/h (4 Bft)
08.04.2014 22:30 5,6 C 4,4 C 92 % 1022,2 hPa 0,4 l/m 0 min 2 min 0,0 UV-I 0 W/m 18,0 km/h (3 Bft)
08.04.2014 22:32 5,7 C 4,4 C 92 % 1022,1 hPa 0,0 l/m 0 min 2 min 0,0 UV-I 0 W/m 12,9 km/h (3 Bft)
08.04.2014 22:34 5,7 C 4,4 C 92 % 1021,9 hPa 0,2 l/m 0 min 2 min 0,0 UV-I 0 W/m 7,7 km/h (2 Bft)
08.04.2014 22:36 5,7 C 4,4 C 92 % 1021,7 hPa 0,0 l/m 0 min 2 min 0,0 UV-I 0 W/m 10,3 km/h (2 Bft)
08.04.2014 22:38 5,7 C 4,4 C 92 % 1021,8 hPa 0,0 l/m 0 min 2 min 0,0 UV-I 0 W/m 0,0 km/h (0 Bft)
08.04.2014 22:40 5,8 C 4,4 C 92 % 1021,8 hPa 0,0 l/m 0 min 2 min 0,0 UV-I 0 W/m 2,6 km/h (1 Bft)
08.04.2014 22:42 5,8 C 4,4 C 92 % 1021,8 hPa 0,0 l/m 0 min 2 min 0,0 UV-I 0 W/m 2,6 km/h (1 Bft)
08.04.2014 22:44 5,8 C 4,4 C 92 % 1021,8 hPa 0,0 l/m 0 min 0 min 0,0 UV-I 0 W/m 7,7 km/h (2 Bft)
08.04.2014 22:46 5,7 C 4,4 C 92 % 1021,8 hPa 0,0 l/m 0 min 0 min 0,0 UV-I 0 W/m 2,6 km/h (1 Bft)
08.04.2014 22:48 5,8 C 4,4 C 92 % 1021,8 hPa 0,0 l/m 0 min 0 min 0,0 UV-I 0 W/m 0,0 km/h (0 Bft)
08.04.2014 22:50 5,8 C 4,4 C 92 % 1021,9 hPa 0,0 l/m 0 min 0 min 0,0 UV-I 0 W/m 0,0 km/h (0 Bft)
08.04.2014 22:52 5,8 C 4,4 C 92 % 1022,3 hPa 0,0 l/m 0 min 2 min 0,0 UV-I 0 W/m 7,7 km/h (2 Bft)
08.04.2014 22:54 5,8 C 4,4 C 92 % 1022,4 hPa 0,2 l/m 0 min 2 min 0,0 UV-I 0 W/m 10,3 km/h (2 Bft)
08.04.2014 22:56 5,8 C 4,4 C 92 % 1022,2 hPa 0,0 l/m 0 min 2 min 0,0 UV-I 0 W/m 15,4 km/h (3 Bft)
08.04.2014 22:58 5,7 C 4,4 C 92 % 1022,3 hPa 0,0 l/m 0 min 2 min 0,0 UV-I 0 W/m 23,2 km/h (4 Bft)
08.04.2014 23:00 5,7 C 4,4 C 92 % 1021,9 hPa 0,0 l/m 0 min 2 min 0,0 UV-I 0 W/m 33,5 km/h (5 Bft)
08.04.2014 23:02 5,7 C 4,4 C 92 % 1021,9 hPa 0,2 l/m 0 min 2 min 0,0 UV-I 0 W/m 12,9 km/h (3 Bft)
08.04.2014 23:04 5,8 C 4,4 C 92 % 1021,8 hPa 0,0 l/m 0 min 2 min 0,0 UV-I 0 W/m 15,4 km/h (3 Bft)
08.04.2014 23:06 5,8 C 4,4 C 92 % 1021,8 hPa 0,0 l/m 0 min 0 min 0,0 UV-I 0 W/m 10,3 km/h (2 Bft)
08.04.2014 23:08 5,8 C 4,4 C 92 % 1021,8 hPa 0,0 l/m 0 min 0 min 0,0 UV-I 0 W/m 0,0 km/h (0 Bft)
08.04.2014 23:10 5,9 C 4,4 C 92 % 1021,9 hPa 0,0 l/m 0 min 0 min 0,0 UV-I 0 W/m 0,0 km/h (0 Bft)
08.04.2014 23:12 5,9 C 4,4 C 92 % 1021,9 hPa 0,0 l/m 0 min 0 min 0,0 UV-I 0 W/m 7,7 km/h (2 Bft)
08.04.2014 23:14 5,9 C 4,4 C 91 % 1021,9 hPa 0,0 l/m 0 min 0 min 0,0 UV-I 0 W/m 0,0 km/h (0 Bft)
08.04.2014 23:16 5,8 C 4,4 C 91 % 1022,0 hPa 0,0 l/m 0 min 0 min 0,0 UV-I 0 W/m 0,0 km/h (0 Bft)
08.04.2014 23:18 5,8 C 4,4 C 91 % 1022,0 hPa 0,0 l/m 0 min 0 min 0,0 UV-I 0 W/m 10,3 km/h (2 Bft)
08.04.2014 23:20 5,7 C 3,9 C 91 % 1022,1 hPa 0,0 l/m 0 min 0 min 0,0 UV-I 0 W/m 5,1 km/h (1 Bft)
08.04.2014 23:22 5,7 C 3,9 C 91 % 1022,1 hPa 0,0 l/m 0 min 0 min 0,0 UV-I 0 W/m 5,1 km/h (1 Bft)
08.04.2014 23:24 5,7 C 3,9 C 91 % 1022,2 hPa 0,0 l/m 0 min 0 min 0,0 UV-I 0 W/m 7,7 km/h (2 Bft)
08.04.2014 23:26 5,7 C 3,9 C 92 % 1022,2 hPa 0,0 l/m 0 min 0 min 0,0 UV-I 0 W/m 10,3 km/h (2 Bft)
08.04.2014 23:28 5,6 C 3,9 C 92 % 1022,1 hPa 0,0 l/m 0 min 0 min 0,0 UV-I 0 W/m 0,0 km/h (0 Bft)
08.04.2014 23:30 5,6 C 3,9 C 92 % 1022,1 hPa 0,0 l/m 0 min 0 min 0,0 UV-I 0 W/m 5,1 km/h (1 Bft)
08.04.2014 23:32 5,6 C 3,9 C 92 % 1022,2 hPa 0,0 l/m 0 min 0 min 0,0 UV-I 0 W/m 5,1 km/h (1 Bft)
08.04.2014 23:34 5,6 C 3,9 C 91 % 1022,2 hPa 0,0 l/m 0 min 0 min 0,0 UV-I 0 W/m 0,0 km/h (0 Bft)
08.04.2014 23:36 5,5 C 3,9 C 91 % 1022,2 hPa 0,0 l/m 0 min 0 min 0,0 UV-I 0 W/m 0,0 km/h (0 Bft)
08.04.2014 23:38 5,4 C 3,9 C 91 % 1022,3 hPa 0,0 l/m 0 min 0 min 0,0 UV-I 0 W/m 0,0 km/h (0 Bft)
08.04.2014 23:40 5,4 C 3,9 C 91 % 1022,4 hPa 0,0 l/m 0 min 0 min 0,0 UV-I 0 W/m 5,1 km/h (1 Bft)
08.04.2014 23:42 5,4 C 3,9 C 91 % 1022,3 hPa 0,0 l/m 0 min 0 min 0,0 UV-I 0 W/m 0,0 km/h (0 Bft)
08.04.2014 23:44 5,4 C 3,9 C 92 % 1022,4 hPa 0,0 l/m 0 min 0 min 0,0 UV-I 0 W/m 0,0 km/h (0 Bft)
08.04.2014 23:46 5,3 C 3,9 C 92 % 1022,4 hPa 0,0 l/m 0 min 0 min 0,0 UV-I 0 W/m 7,7 km/h (2 Bft)
08.04.2014 23:48 5,3 C 3,9 C 92 % 1022,5 hPa 0,0 l/m 0 min 0 min 0,0 UV-I 0 W/m 0,0 km/h (0 Bft)
08.04.2014 23:50 5,3 C 3,9 C 92 % 1022,5 hPa 0,0 l/m 0 min 0 min 0,0 UV-I 0 W/m 0,0 km/h (0 Bft)
08.04.2014 23:52 5,2 C 3,9 C 92 % 1022,4 hPa 0,0 l/m 0 min 0 min 0,0 UV-I 0 W/m 0,0 km/h (0 Bft)
08.04.2014 23:54 5,2 C 3,9 C 92 % 1022,5 hPa 0,0 l/m 0 min 0 min 0,0 UV-I 0 W/m 0,0 km/h (0 Bft)
08.04.2014 23:56 5,2 C 3,9 C 92 % 1022,5 hPa 0,0 l/m 0 min 0 min 0,0 UV-I 0 W/m 2,6 km/h (1 Bft)
08.04.2014 23:58 5,2 C 3,9 C 92 % 1022,5 hPa 0,0 l/m 0 min 0 min 0,0 UV-I 0 W/m 5,1 km/h (1 Bft)
_ Min-Zeit 23:52 22:26 14:34 03:20 - - - - - 00:00
Minimum _ 5,2 C 3,9 C 58 % 1007,8 hPa - - - - - 0,0 km/h (0 Bft)
_ Max-Zeit 04:05 00:00 06:56 21:50 22:26 08:34 00:24 14:24 13:28 04:48
Maximum _ 14,2 C 12,2 C 98 % 1022,5 hPa 0,6 l/m 2 min 2 min 2,6 UV-I 909 W/m 46,3 km/h
W-SW (6 Bft)
Durchschnitt _ 10,4 C 8,7 C 83 % 1014,7 hPa #5,4 l/m #2:28 h #3:52 h 1,3 UV-I 214 W/m 14,3 km/h (3 Bft)
© 2014 W. Hausmann